IT9IJI-13 Weather Reports


Display with metric or nautical units.
time (UTC)temp
F
wind
direction
speed
MPH
gust
MPH
rain 1hr
in
rain 24hr
in
rain mn
in
humidity
%
barometer
mb
20260507182403 69 116 1.0 6.0 0.00 0.00 0.00 62 1009.2
20260507182306 69 116 1.0 6.0 0.00 0.00 0.00 62 1009.3
20260507182203 69 116 1.0 6.0 0.00 0.00 0.00 62 1009.3
20260507182103 69 116 1.0 6.0 0.00 0.00 0.00 62 1009.3
20260507182003 69 117 1.0 6.0 0.00 0.00 0.00 61 1009.2
20260507181903 69 114 1.0 6.0 0.00 0.00 0.00 61 1009.3
20260507181803 69 114 0.0 6.0 0.00 0.00 0.00 61 1009.4
20260507181703 69 112 0.0 6.0 0.00 0.00 0.00 61 1009.4
20260507181603 69 115 0.0 3.0 0.00 0.00 0.00 61 1009.4
20260507181503 69 116 0.0 3.0 0.00 0.00 0.00 61 1009.4
20260507181403 69 112 0.0 3.0 0.00 0.00 0.00 61 1009.5
20260507181303 69 134 0.0 3.0 0.00 0.00 0.00 62 1009.5
20260507181203 69 39 0.0 3.0 0.00 0.00 0.00 61 1009.5
20260507181103 69 88 0.0 3.0 0.00 0.00 0.00 62 1009.5
20260507181003 69 82 0.0 3.0 0.00 0.00 0.00 62 1009.4
20260507180903 69 35 0.0 3.0 0.00 0.00 0.00 62 1009.5
20260507180803 69 88 0.0 3.0 0.00 0.00 0.00 62 1009.5
20260507180703 69 104 0.0 5.0 0.00 0.00 0.00 62 1009.4
20260507180603 69 77 0.0 5.0 0.00 0.00 0.00 62 1009.4
20260507180503 69 92 1.0 5.0 0.00 0.00 0.00 62 1009.4
20260507180403 69 103 1.0 5.0 0.00 0.00 0.00 62 1009.4
20260507180303 69 97 1.0 5.0 0.00 0.00 0.00 62 1009.3
20260507180203 69 100 1.0 5.0 0.00 0.00 0.00 62 1009.3
20260507180003 69 102 1.0 5.0 0.00 0.00 0.00 62 1009.1
20260507175903 69 101 1.0 5.0 0.00 0.00 0.00 62 1009.1
20260507175803 69 91 1.0 5.0 0.00 0.00 0.00 61 1009.1
20260507175703 69 88 1.0 4.0 0.00 0.00 0.00 61 1009.1
20260507175603 69 78 1.0 4.0 0.00 0.00 0.00 61 1009.2
20260507175503 70 70 1.0 4.0 0.00 0.00 0.00 61 1009.2
20260507175403 70 74 1.0 9.0 0.00 0.00 0.00 61 1009.3
20260507175306 70 63 1.0 9.0 0.00 0.00 0.00 61 1009.3
20260507175203 70 70 1.0 9.0 0.00 0.00 0.00 61 1009.4
20260507175103 70 70 1.0 9.0 0.00 0.00 0.00 61 1009.4
20260507175003 70 75 1.0 9.0 0.00 0.00 0.00 61 1009.2
20260507174903 70 49 1.0 9.0 0.00 0.00 0.00 61 1009.3
20260507174803 70 44 1.0 9.0 0.00 0.00 0.00 61 1009.4
20260507174703 70 347 1.0 9.0 0.00 0.00 0.00 61 1009.5
20260507174603 70 65 1.0 9.0 0.00 0.00 0.00 61 1009.5
20260507174503 70 65 1.0 9.0 0.00 0.00 0.00 61 1009.5
20260507174403 70 23 1.0 4.0 0.00 0.00 0.00 61 1009.5
20260507174304 70 76 1.0 4.0 0.00 0.00 0.00 61 1009.4
20260507174204 70 88 1.0 4.0 0.00 0.00 0.00 61 1009.5
20260507174104 70 97 1.0 4.0 0.00 0.00 0.00 61 1009.5
20260507174004 70 93 1.0 4.0 0.00 0.00 0.00 61 1009.5
20260507173904 70 103 1.0 4.0 0.00 0.00 0.00 61 1009.4
20260507173804 70 110 1.0 4.0 0.00 0.00 0.00 61 1009.5
20260507173704 70 113 1.0 4.0 0.00 0.00 0.00 60 1009.4
20260507173604 70 116 1.0 4.0 0.00 0.00 0.00 60 1009.5
20260507173504 70 117 1.0 4.0 0.00 0.00 0.00 60 1009.6
20260507173404 70 117 1.0 4.0 0.00 0.00 0.00 60 1009.5
20260507173304 70 126 1.0 4.0 0.00 0.00 0.00 60 1009.6
20260507173204 70 141 1.0 4.0 0.00 0.00 0.00 60 1009.5
20260507173104 70 169 1.0 4.0 0.00 0.00 0.00 60 1009.6
20260507173004 70 168 1.0 4.0 0.00 0.00 0.00 60 1009.5
20260507172904 70 137 1.0 4.0 0.00 0.00 0.00 60 1009.5
20260507172804 70 156 1.0 4.0 0.00 0.00 0.00 60 1009.5
20260507172704 70 191 1.0 4.0 0.00 0.00 0.00 60 1009.5
20260507172604 70 249 1.0 4.0 0.00 0.00 0.00 60 1009.5
20260507172504 70 251 1.0 4.0 0.00 0.00 0.00 60 1009.6
20260507172404 70 235 1.0 4.0 0.00 0.00 0.00 60 1009.7
20260507172307 71 264 0.0 4.0 0.00 0.00 0.00 59 1009.7
20260507172204 71 252 0.0 4.0 0.00 0.00 0.00 59 1009.8
20260507172104 71 259 0.0 4.0 0.00 0.00 0.00 59 1009.8
20260507172004 71 249 0.0 4.0 0.00 0.00 0.00 59 1009.8
20260507171904 71 255 0.0 4.0 0.00 0.00 0.00 59 1009.7
20260507171804 71 227 0.0 4.0 0.00 0.00 0.00 59 1009.7
20260507171704 71 216 0.0 4.0 0.00 0.00 0.00 59 1009.7
20260507171604 71 183 0.0 4.0 0.00 0.00 0.00 59 1009.7
20260507171504 71 199 0.0 4.0 0.00 0.00 0.00 59 1009.6
20260507171404 71 140 1.0 4.0 0.00 0.00 0.00 59 1009.5
20260507171304 71 108 1.0 5.0 0.00 0.00 0.00 59 1009.6
20260507171204 71 106 1.0 5.0 0.00 0.00 0.00 59 1009.6
20260507171104 71 122 1.0 6.0 0.00 0.00 0.00 59 1009.6
20260507171004 71 125 1.0 6.0 0.00 0.00 0.00 59 1009.5
20260507170904 71 182 1.0 6.0 0.00 0.00 0.00 59 1009.4
20260507170804 71 287 1.0 6.0 0.00 0.00 0.00 59 1009.4
20260507170703 71 98 1.0 6.0 0.00 0.00 0.00 59 1009.4
20260507170604 71 98 1.0 6.0 0.00 0.00 0.00 58 1009.4
20260507170504 71 99 1.0 6.0 0.00 0.00 0.00 58 1009.5
20260507170404 71 113 1.0 6.0 0.00 0.00 0.00 58 1009.5
20260507170303 71 129 1.0 6.0 0.00 0.00 0.00 58 1009.5
20260507170204 71 252 1.0 6.0 0.00 0.00 0.00 58 1009.4
20260507170104 71 45 1.0 5.0 0.00 0.00 0.00 58 1009.5
20260507170004 71 77 1.0 5.0 0.00 0.00 0.00 58 1009.4
20260507165903 71 100 1.0 4.0 0.00 0.00 0.00 58 1009.3
20260507165803 71 95 1.0 4.0 0.00 0.00 0.00 58 1009.3
20260507165704 71 92 1.0 4.0 0.00 0.00 0.00 58 1009.1
20260507165604 72 96 1.0 4.0 0.00 0.00 0.00 58 1009.0
20260507165504 72 94 1.0 4.0 0.00 0.00 0.00 58 1009.1
20260507165403 72 81 1.0 4.0 0.00 0.00 0.00 58 1009.0
20260507165306 72 105 1.0 6.0 0.00 0.00 0.00 58 1008.9
20260507165203 71 98 1.0 6.0 0.00 0.00 0.00 58 1008.9
20260507165103 71 102 1.0 6.0 0.00 0.00 0.00 58 1009.0
20260507165003 71 96 1.0 6.0 0.00 0.00 0.00 58 1008.9
20260507164903 71 100 1.0 6.0 0.00 0.00 0.00 57 1008.9
20260507164803 72 109 1.0 6.0 0.00 0.00 0.00 57 1008.9
20260507164703 72 105 1.0 6.0 0.00 0.00 0.00 57 1008.9
20260507164603 71 94 1.0 6.0 0.00 0.00 0.00 57 1009.0
20260507164503 72 96 1.0 6.0 0.00 0.00 0.00 57 1008.9
20260507164403 72 106 1.0 6.0 0.00 0.00 0.00 57 1009.0
20260507164303 72 102 1.0 4.0 0.00 0.00 0.00 57 1008.9
20260507164203 72 92 1.0 5.0 0.00 0.00 0.00 57 1008.9
20260507164103 72 103 1.0 5.0 0.00 0.00 0.00 57 1008.8
20260507164003 72 189 1.0 5.0 0.00 0.00 0.00 57 1008.9
20260507163903 72 156 1.0 5.0 0.00 0.00 0.00 57 1008.9
20260507163803 72 180 1.0 5.0 0.00 0.00 0.00 57 1008.8
20260507163703 72 218 1.0 5.0 0.00 0.00 0.00 57 1008.9
20260507163603 72 228 1.0 5.0 0.00 0.00 0.00 57 1008.9
20260507163503 72 234 1.0 6.0 0.00 0.00 0.00 56 1008.8
20260507163403 72 250 1.0 6.0 0.00 0.00 0.00 56 1008.8
20260507163303 72 251 1.0 6.0 0.00 0.00 0.00 56 1008.8
20260507163203 72 227 1.0 6.0 0.00 0.00 0.00 56 1008.9
20260507163103 72 214 1.0 6.0 0.00 0.00 0.00 56 1008.8
20260507163003 72 208 1.0 6.0 0.00 0.00 0.00 56 1008.8
20260507162903 72 266 1.0 6.0 0.00 0.00 0.00 56 1008.8
20260507162803 72 272 1.0 6.0 0.00 0.00 0.00 56 1008.8
20260507162703 72 277 1.0 6.0 0.00 0.00 0.00 56 1008.8
20260507162603 72 284 1.0 6.0 0.00 0.00 0.00 56 1008.8
20260507162503 72 295 1.0 6.0 0.00 0.00 0.00 56 1008.9
20260507162403 73 297 1.0 6.0 0.00 0.00 0.00 56 1008.9
20260507162306 73 298 1.0 4.0 0.00 0.00 0.00 56 1008.9
20260507162203 73 300 1.0 4.0 0.00 0.00 0.00 56 1008.8
20260507162103 73 303 1.0 6.0 0.00 0.00 0.00 55 1008.8
20260507162003 73 303 1.0 6.0 0.00 0.00 0.00 56 1008.7
20260507161903 73 334 1.0 6.0 0.00 0.00 0.00 55 1008.7
20260507161803 73 78 1.0 6.0 0.00 0.00 0.00 55 1008.7
20260507161703 73 95 1.0 6.0 0.00 0.00 0.00 55 1008.8
20260507161603 73 102 1.0 6.0 0.00 0.00 0.00 55 1008.8
20260507161503 73 103 1.0 6.0 0.00 0.00 0.00 55 1008.7
20260507161403 73 102 1.0 6.0 0.00 0.00 0.00 55 1008.7
20260507161303 73 102 1.0 6.0 0.00 0.00 0.00 55 1008.7
20260507161203 73 104 1.0 6.0 0.00 0.00 0.00 55 1008.8
20260507161103 73 108 1.0 6.0 0.00 0.00 0.00 55 1008.7
20260507161003 73 107 1.0 6.0 0.00 0.00 0.00 55 1008.8
20260507160903 73 110 1.0 4.0 0.00 0.00 0.00 55 1008.8
20260507160803 73 109 1.0 4.0 0.00 0.00 0.00 55 1008.7
20260507160703 73 106 1.0 4.0 0.00 0.00 0.00 55 1008.8
20260507160603 73 107 1.0 4.0 0.00 0.00 0.00 55 1008.8
20260507160503 73 107 1.0 4.0 0.00 0.00 0.00 55 1008.8
20260507160403 73 113 1.0 4.0 0.00 0.00 0.00 54 1008.8
20260507160303 73 114 1.0 4.0 0.00 0.00 0.00 54 1008.9
20260507160203 73 115 1.0 5.0 0.00 0.00 0.00 54 1008.8
20260507160003 73 110 1.0 5.0 0.00 0.00 0.00 54 1009.0
20260507155903 73 107 1.0 11.0 0.00 0.00 0.00 54 1008.9
20260507155803 73 106 1.0 11.0 0.00 0.00 0.00 54 1008.8
20260507155703 73 114 1.0 11.0 0.00 0.00 0.00 54 1008.9
20260507155603 73 122 1.0 11.0 0.00 0.00 0.00 54 1008.9
20260507155503 73 121 1.0 11.0 0.00 0.00 0.00 54 1008.9
20260507155403 73 111 1.0 11.0 0.00 0.00 0.00 54 1008.8
20260507155306 73 108 1.0 11.0 0.00 0.00 0.00 53 1008.9
20260507155203 74 108 1.0 11.0 0.00 0.00 0.00 53 1008.9
20260507155103 74 109 1.0 11.0 0.00 0.00 0.00 53 1008.9
20260507155003 74 106 1.0 11.0 0.00 0.00 0.00 53 1008.9
20260507154903 74 107 1.0 7.0 0.00 0.00 0.00 53 1008.9
20260507154803 74 109 1.0 7.0 0.00 0.00 0.00 53 1008.9
20260507154703 74 110 1.0 7.0 0.00 0.00 0.00 53 1008.9
20260507154603 74 110 1.0 7.0 0.00 0.00 0.00 53 1008.8
20260507154503 74 110 1.0 7.0 0.00 0.00 0.00 53 1008.7
20260507154403 74 112 1.0 7.0 0.00 0.00 0.00 53 1008.7
20260507154303 74 123 1.0 7.0 0.00 0.00 0.00 53 1008.5
20260507154203 74 119 1.0 7.0 0.00 0.00 0.00 53 1008.6
20260507154103 74 117 1.0 7.0 0.00 0.00 0.00 53 1008.7
20260507154003 74 119 1.0 7.0 0.00 0.00 0.00 53 1008.6
20260507153903 74 120 1.0 5.0 0.00 0.00 0.00 53 1008.6
20260507153803 74 122 1.0 5.0 0.00 0.00 0.00 52 1008.5
20260507153703 74 113 1.0 8.0 0.00 0.00 0.00 52 1008.5
20260507153603 74 110 1.0 8.0 0.00 0.00 0.00 52 1008.6
20260507153504 74 111 1.0 8.0 0.00 0.00 0.00 52 1008.5
20260507153403 74 110 1.0 8.0 0.00 0.00 0.00 52 1008.6
20260507153303 74 108 1.0 8.0 0.00 0.00 0.00 52 1008.6
20260507153203 74 104 1.0 8.0 0.00 0.00 0.00 52 1008.5
20260507153103 74 98 1.0 8.0 0.00 0.00 0.00 52 1008.6
20260507153003 74 89 1.0 8.0 0.00 0.00 0.00 51 1008.7
20260507152903 74 97 1.0 8.0 0.00 0.00 0.00 51 1008.6
20260507152803 74 97 1.0 8.0 0.00 0.00 0.00 51 1008.6
20260507152703 74 92 1.0 6.0 0.00 0.00 0.00 51 1008.6
20260507152603 74 89 1.0 6.0 0.00 0.00 0.00 51 1008.5
20260507152503 75 92 1.0 6.0 0.00 0.00 0.00 51 1008.6
20260507152403 75 95 1.0 6.0 0.00 0.00 0.00 51 1008.6
20260507152306 74 91 1.0 7.0 0.00 0.00 0.00 51 1008.6
20260507152203 75 85 1.0 7.0 0.00 0.00 0.00 51 1008.7
20260507152103 75 92 1.0 7.0 0.00 0.00 0.00 51 1008.6
20260507152003 75 97 1.0 7.0 0.00 0.00 0.00 51 1008.6
20260507151903 75 95 1.0 7.0 0.00 0.00 0.00 51 1008.7
20260507151804 75 99 1.0 7.0 0.00 0.00 0.00 50 1008.6
20260507151704 75 97 1.0 7.0 0.00 0.00 0.00 50 1008.7
20260507151604 75 100 1.0 7.0 0.00 0.00 0.00 50 1008.7
20260507151504 75 101 1.0 7.0 0.00 0.00 0.00 50 1008.6
20260507151404 75 103 1.0 7.0 0.00 0.00 0.00 50 1008.5
20260507151304 75 106 1.0 5.0 0.00 0.00 0.00 50 1008.6
20260507151204 75 112 1.0 5.0 0.00 0.00 0.00 50 1008.6
20260507151104 75 109 1.0 5.0 0.00 0.00 0.00 50 1008.6
20260507151004 75 104 1.0 5.0 0.00 0.00 0.00 50 1008.7
20260507150904 75 97 1.0 5.0 0.00 0.00 0.00 50 1008.5
20260507150804 75 94 1.0 5.0 0.00 0.00 0.00 50 1008.5
20260507150704 75 97 1.0 5.0 0.00 0.00 0.00 50 1008.6
20260507150604 75 94 1.0 4.0 0.00 0.00 0.00 50 1008.6
20260507150504 75 82 1.0 4.0 0.00 0.00 0.00 50 1008.5
20260507150404 75 88 1.0 5.0 0.00 0.00 0.00 50 1008.3
20260507150304 75 88 1.0 5.0 0.00 0.00 0.00 50 1008.4
20260507150204 75 87 1.0 5.0 0.00 0.00 0.00 50 1008.5
20260507150104 75 92 1.0 5.0 0.00 0.00 0.00 50 1008.5
20260507150004 75 97 1.0 5.0 0.00 0.00 0.00 49 1008.4
20260507145904 75 94 1.0 5.0 0.00 0.00 0.00 49 1008.5
20260507145804 75 101 1.0 5.0 0.00 0.00 0.00 49 1008.5
20260507145704 75 102 1.0 5.0 0.00 0.00 0.00 49 1008.5
20260507145604 75 104 1.0 5.0 0.00 0.00 0.00 49 1008.5
20260507145504 75 112 1.0 5.0 0.00 0.00 0.00 49 1008.5
20260507145404 75 110 1.0 7.0 0.00 0.00 0.00 49 1008.7
20260507145306 75 108 1.0 7.0 0.00 0.00 0.00 49 1008.6
20260507145204 75 107 1.0 7.0 0.00 0.00 0.00 49 1008.7
20260507145104 75 106 1.0 7.0 0.00 0.00 0.00 49 1008.7
20260507145004 75 104 1.0 7.0 0.00 0.00 0.00 49 1008.7
20260507144904 76 107 1.0 7.0 0.00 0.00 0.00 49 1008.8
20260507144804 76 105 1.0 7.0 0.00 0.00 0.00 49 1008.8
20260507144704 76 107 1.0 7.0 0.00 0.00 0.00 49 1008.8
20260507144604 76 106 1.0 7.0 0.00 0.00 0.00 48 1008.6
20260507144504 76 104 1.0 7.0 0.00 0.00 0.00 48 1008.6
20260507144404 76 107 1.0 9.0 0.00 0.00 0.00 48 1008.6
20260507144304 76 112 1.0 9.0 0.00 0.00 0.00 48 1008.5
20260507144204 76 113 1.0 9.0 0.00 0.00 0.00 48 1008.5
20260507144104 76 112 1.0 9.0 0.00 0.00 0.00 48 1008.6
20260507144004 76 113 1.0 9.0 0.00 0.00 0.00 48 1008.6
20260507143904 76 114 1.0 9.0 0.00 0.00 0.00 48 1008.7
20260507143803 76 116 1.0 9.0 0.00 0.00 0.00 48 1008.7
20260507143704 76 115 1.0 9.0 0.00 0.00 0.00 48 1008.7
20260507143604 76 118 1.0 9.0 0.00 0.00 0.00 48 1008.6
20260507143504 76 122 1.0 9.0 0.00 0.00 0.00 48 1008.6
20260507143403 76 116 1.0 7.0 0.00 0.00 0.00 48 1008.5
20260507143303 76 113 1.0 7.0 0.00 0.00 0.00 48 1008.7
20260507143203 76 115 1.0 7.0 0.00 0.00 0.00 48 1008.8
20260507143103 76 118 1.0 7.0 0.00 0.00 0.00 47 1008.8
20260507143004 76 119 1.0 7.0 0.00 0.00 0.00 47 1008.8
20260507142903 76 117 1.0 7.0 0.00 0.00 0.00 47 1008.8
20260507142803 76 119 1.0 5.0 0.00 0.00 0.00 47 1008.8
20260507142703 76 118 1.0 5.0 0.00 0.00 0.00 47 1008.8
20260507142603 76 116 1.0 5.0 0.00 0.00 0.00 47 1008.8
20260507142504 76 105 1.0 5.0 0.00 0.00 0.00 47 1008.8
20260507142403 76 108 1.0 5.0 0.00 0.00 0.00 47 1008.7
20260507142306 76 106 1.0 5.0 0.00 0.00 0.00 47 1008.7
20260507142203 76 102 1.0 5.0 0.00 0.00 0.00 47 1008.7
20260507142103 76 98 1.0 5.0 0.00 0.00 0.00 47 1008.8
20260507142003 76 100 1.0 5.0 0.00 0.00 0.00 47 1008.9
20260507141903 76 98 1.0 5.0 0.00 0.00 0.00 47 1008.9
20260507141803 76 96 1.0 5.0 0.00 0.00 0.00 47 1008.9
20260507141703 76 98 1.0 5.0 0.00 0.00 0.00 46 1008.9
20260507141603 76 95 1.0 5.0 0.00 0.00 0.00 46 1009.0
20260507141503 76 106 1.0 5.0 0.00 0.00 0.00 46 1009.1
20260507141403 76 102 1.0 5.0 0.00 0.00 0.00 46 1009.1
20260507141303 76 103 1.0 5.0 0.00 0.00 0.00 46 1009.1
20260507141203 76 103 1.0 5.0 0.00 0.00 0.00 46 1009.1
20260507141103 76 101 1.0 5.0 0.00 0.00 0.00 46 1009.2
20260507141003 76 102 1.0 6.0 0.00 0.00 0.00 46 1009.3
20260507140903 76 100 1.0 6.0 0.00 0.00 0.00 46 1009.3
20260507140803 76 99 2.0 6.0 0.00 0.00 0.00 46 1009.3
20260507140703 76 99 2.0 6.0 0.00 0.00 0.00 46 1009.3
20260507140603 76 99 1.0 6.0 0.00 0.00 0.00 46 1009.2
20260507140503 76 102 2.0 6.0 0.00 0.00 0.00 46 1009.3
20260507140403 76 103 1.0 6.0 0.00 0.00 0.00 45 1009.3
20260507140303 76 103 1.0 6.0 0.00 0.00 0.00 45 1009.2
20260507140203 76 103 1.0 6.0 0.00 0.00 0.00 45 1009.4
20260507140103 76 103 1.0 6.0 0.00 0.00 0.00 45 1009.3
20260507140003 76 104 1.0 6.0 0.00 0.00 0.00 45 1009.4
20260507135903 76 108 1.0 6.0 0.00 0.00 0.00 45 1009.4
20260507135804 76 108 1.0 6.0 0.00 0.00 0.00 45 1009.5
20260507135703 77 111 1.0 6.0 0.00 0.00 0.00 45 1009.5
20260507135603 77 107 1.0 6.0 0.00 0.00 0.00 45 1009.5
20260507135503 77 107 1.0 6.0 0.00 0.00 0.00 45 1009.6
20260507135403 77 103 1.0 6.0 0.00 0.00 0.00 45 1009.6
20260507135306 77 102 1.0 6.0 0.00 0.00 0.00 45 1009.6
20260507135203 77 105 1.0 6.0 0.00 0.00 0.00 45 1009.7
20260507135103 77 109 1.0 7.0 0.00 0.00 0.00 45 1009.6
20260507135003 77 109 1.0 7.0 0.00 0.00 0.00 45 1009.6
20260507134903 77 109 1.0 7.0 0.00 0.00 0.00 44 1009.7
20260507134803 77 109 1.0 7.0 0.00 0.00 0.00 44 1009.6
20260507134703 77 109 1.0 7.0 0.00 0.00 0.00 44 1009.6
20260507134603 77 114 1.0 7.0 0.00 0.00 0.00 44 1009.7
20260507134503 77 109 2.0 7.0 0.00 0.00 0.00 44 1009.7
20260507134403 77 112 2.0 7.0 0.00 0.00 0.00 44 1009.6
20260507134303 77 113 2.0 7.0 0.00 0.00 0.00 44 1009.6
20260507134203 77 114 1.0 7.0 0.00 0.00 0.00 44 1009.6
20260507134103 77 118 1.0 6.0 0.00 0.00 0.00 45 1009.6
20260507134003 77 118 1.0 6.0 0.00 0.00 0.00 45 1009.6
20260507133903 77 115 1.0 6.0 0.00 0.00 0.00 45 1009.7
20260507133803 77 115 1.0 6.0 0.00 0.00 0.00 44 1009.7
20260507133703 77 114 1.0 6.0 0.00 0.00 0.00 45 1009.7
20260507133603 77 116 2.0 6.0 0.00 0.00 0.00 44 1009.7
20260507133503 77 119 1.0 6.0 0.00 0.00 0.00 44 1009.7
20260507133403 77 119 1.0 6.0 0.00 0.00 0.00 44 1009.7
20260507133303 77 117 2.0 10.0 0.00 0.00 0.00 44 1009.7
20260507133203 77 117 2.0 10.0 0.00 0.00 0.00 44 1009.8
20260507133103 77 114 2.0 10.0 0.00 0.00 0.00 44 1009.7
20260507133003 77 114 2.0 10.0 0.00 0.00 0.00 43 1009.7
20260507132903 77 115 2.0 10.0 0.00 0.00 0.00 43 1009.8
20260507132803 77 115 2.0 10.0 0.00 0.00 0.00 43 1009.7
20260507132703 77 116 2.0 10.0 0.00 0.00 0.00 43 1009.8
20260507132603 77 115 2.0 10.0 0.00 0.00 0.00 43 1009.9
20260507132503 77 112 2.0 10.0 0.00 0.00 0.00 43 1010.0
20260507132403 77 111 2.0 10.0 0.00 0.00 0.00 43 1009.9
20260507132307 78 110 2.0 8.0 0.00 0.00 0.00 43 1010.0
20260507132203 77 109 2.0 8.0 0.00 0.00 0.00 43 1009.9
20260507132103 78 108 2.0 8.0 0.00 0.00 0.00 43 1009.9
20260507132003 78 105 2.0 8.0 0.00 0.00 0.00 43 1009.9
20260507131903 78 105 3.0 8.0 0.00 0.00 0.00 43 1009.9
20260507131803 78 106 2.0 8.0 0.00 0.00 0.00 43 1009.9
20260507131703 78 106 3.0 9.0 0.00 0.00 0.00 43 1010.0
20260507131603 77 105 3.0 9.0 0.00 0.00 0.00 43 1009.9
20260507131503 78 105 3.0 9.0 0.00 0.00 0.00 43 1010.1
20260507131403 78 105 3.0 9.0 0.00 0.00 0.00 43 1010.0
20260507131303 78 107 3.0 9.0 0.00 0.00 0.00 42 1010.0
20260507131203 78 107 3.0 9.0 0.00 0.00 0.00 42 1009.9
20260507131103 78 106 3.0 9.0 0.00 0.00 0.00 42 1009.9
20260507131003 78 106 3.0 9.0 0.00 0.00 0.00 42 1010.0
20260507130903 78 107 3.0 9.0 0.00 0.00 0.00 42 1010.0
20260507130804 78 107 3.0 9.0 0.00 0.00 0.00 42 1010.0
20260507130704 78 107 3.0 7.0 0.00 0.00 0.00 43 1009.9
20260507130604 78 108 2.0 7.0 0.00 0.00 0.00 42 1009.9
20260507130504 78 110 2.0 7.0 0.00 0.00 0.00 42 1009.8
20260507130404 78 111 2.0 7.0 0.00 0.00 0.00 42 1009.9
20260507130304 78 107 2.0 6.0 0.00 0.00 0.00 43 1009.9
20260507130204 78 108 2.0 7.0 0.00 0.00 0.00 43 1009.9
20260507130104 78 111 2.0 7.0 0.00 0.00 0.00 42 1010.0
20260507130004 78 112 2.0 7.0 0.00 0.00 0.00 42 1010.1
20260507125904 78 112 2.0 7.0 0.00 0.00 0.00 42 1010.0
20260507125804 78 113 2.0 7.0 0.00 0.00 0.00 42 1010.0
20260507125704 78 113 2.0 8.0 0.00 0.00 0.00 42 1010.2
20260507125604 78 112 2.0 8.0 0.00 0.00 0.00 42 1010.2
20260507125504 78 113 2.0 8.0 0.00 0.00 0.00 41 1010.2
20260507125404 78 111 2.0 8.0 0.00 0.00 0.00 41 1010.2
20260507125306 78 112 2.0 8.0 0.00 0.00 0.00 41 1010.2
20260507125204 78 112 2.0 8.0 0.00 0.00 0.00 41 1010.1
20260507125104 78 116 2.0 8.0 0.00 0.00 0.00 41 1010.2
20260507125004 78 117 2.0 8.0 0.00 0.00 0.00 41 1010.1
20260507124904 78 115 2.0 8.0 0.00 0.00 0.00 41 1010.3
20260507124804 78 114 2.0 8.0 0.00 0.00 0.00 41 1010.3
20260507124704 78 113 2.0 9.0 0.00 0.00 0.00 41 1010.2
20260507124604 78 113 2.0 9.0 0.00 0.00 0.00 41 1010.2
20260507124504 78 111 2.0 9.0 0.00 0.00 0.00 41 1010.2
20260507124404 78 114 2.0 9.0 0.00 0.00 0.00 41 1010.2
20260507124304 78 114 2.0 9.0 0.00 0.00 0.00 41 1010.2
20260507124204 78 115 2.0 9.0 0.00 0.00 0.00 41 1010.2
20260507124104 78 108 2.0 9.0 0.00 0.00 0.00 41 1010.2
20260507124004 78 111 2.0 9.0 0.00 0.00 0.00 41 1010.2
20260507123904 78 112 2.0 9.0 0.00 0.00 0.00 41 1010.3
20260507123804 78 112 3.0 9.0 0.00 0.00 0.00 41 1010.3
20260507123704 78 114 3.0 9.0 0.00 0.00 0.00 40 1010.2
20260507123604 78 113 2.0 9.0 0.00 0.00 0.00 40 1010.3
20260507123504 78 113 2.0 9.0 0.00 0.00 0.00 40 1010.4
20260507123404 78 110 2.0 9.0 0.00 0.00 0.00 40 1010.4
20260507123304 78 110 2.0 9.0 0.00 0.00 0.00 40 1010.4
20260507123204 78 108 2.0 9.0 0.00 0.00 0.00 40 1010.4
20260507123104 78 110 2.0 8.0 0.00 0.00 0.00 40 1010.3
20260507123004 78 102 2.0 8.0 0.00 0.00 0.00 40 1010.3
20260507122904 78 99 2.0 8.0 0.00 0.00 0.00 39 1010.5
20260507122803 78 102 2.0 8.0 0.00 0.00 0.00 39 1010.5
20260507122705 78 100 2.0 8.0 0.00 0.00 0.00 39 1010.5
20260507122603 78 101 2.0 8.0 0.00 0.00 0.00 39 1010.4
20260507122504 78 101 2.0 8.0 0.00 0.00 0.00 39 1010.3
20260507122403 78 103 2.0 7.0 0.00 0.00 0.00 39 1010.4
20260507122306 78 102 3.0 7.0 0.00 0.00 0.00 38 1010.3
20260507122203 78 103 2.0 7.0 0.00 0.00 0.00 38 1010.4
20260507122104 78 105 2.0 7.0 0.00 0.00 0.00 38 1010.4
20260507122004 78 107 3.0 7.0 0.00 0.00 0.00 38 1010.6
20260507121903 79 108 2.0 7.0 0.00 0.00 0.00 38 1010.5
20260507121803 78 107 3.0 11.0 0.00 0.00 0.00 38 1010.6
20260507121703 78 108 3.0 11.0 0.00 0.00 0.00 38 1010.6
20260507121603 79 107 3.0 11.0 0.00 0.00 0.00 38 1010.5
20260507121504 79 108 2.0 11.0 0.00 0.00 0.00 38 1010.5
20260507121403 79 108 2.0 11.0 0.00 0.00 0.00 38 1010.4
20260507121303 79 109 2.0 11.0 0.00 0.00 0.00 38 1010.3
20260507121203 79 111 2.0 11.0 0.00 0.00 0.00 38 1010.5
20260507121103 79 110 2.0 11.0 0.00 0.00 0.00 37 1010.4
20260507121003 79 109 3.0 11.0 0.00 0.00 0.00 37 1010.4
20260507120903 78 107 3.0 11.0 0.00 0.00 0.00 37 1010.4
20260507120803 78 105 3.0 9.0 0.00 0.00 0.00 37 1010.3
20260507120703 78 105 2.0 9.0 0.00 0.00 0.00 37 1010.4
20260507120603 78 106 2.0 9.0 0.00 0.00 0.00 37 1010.5
20260507120503 78 106 3.0 9.0 0.00 0.00 0.00 37 1010.5
20260507120403 78 107 3.0 9.0 0.00 0.00 0.00 36 1010.4
20260507120303 79 106 3.0 9.0 0.00 0.00 0.00 36 1010.5
20260507120203 79 103 3.0 9.0 0.00 0.00 0.00 36 1010.5
20260507120103 79 105 3.0 9.0 0.00 0.00 0.00 36 1010.5
20260507120004 79 103 3.0 9.0 0.00 0.00 0.00 36 1010.4
20260507115903 79 105 3.0 8.0 0.00 0.00 0.00 36 1010.4
20260507115803 79 106 3.0 8.0 0.00 0.00 0.00 36 1010.2
20260507115703 79 106 3.0 8.0 0.00 0.00 0.00 36 1010.2
20260507115603 79 106 3.0 8.0 0.00 0.00 0.00 36 1010.2
20260507115503 79 106 3.0 9.0 0.00 0.00 0.00 35 1010.2
20260507115403 79 106 3.0 9.0 0.00 0.00 0.00 36 1010.2
20260507115306 79 105 3.0 9.0 0.00 0.00 0.00 36 1010.2
20260507115203 79 107 3.0 9.0 0.00 0.00 0.00 36 1010.3
20260507115103 79 108 3.0 9.0 0.00 0.00 0.00 35 1010.4
20260507115003 79 110 3.0 11.0 0.00 0.00 0.00 35 1010.5
20260507114903 79 109 3.0 11.0 0.00 0.00 0.00 35 1010.6
20260507114803 79 108 3.0 11.0 0.00 0.00 0.00 35 1010.6
20260507114703 79 105 3.0 11.0 0.00 0.00 0.00 35 1010.6
20260507114603 79 103 3.0 12.0 0.00 0.00 0.00 35 1010.6
20260507114503 79 101 3.0 12.0 0.00 0.00 0.00 34 1010.6
20260507114403 79 103 3.0 12.0 0.00 0.00 0.00 34 1010.6
20260507114303 79 102 3.0 12.0 0.00 0.00 0.00 34 1010.6
20260507114203 79 102 3.0 12.0 0.00 0.00 0.00 34 1010.6
20260507114103 79 101 3.0 12.0 0.00 0.00 0.00 34 1010.6
20260507114003 79 98 3.0 12.0 0.00 0.00 0.00 34 1010.5
20260507113903 79 98 3.0 12.0 0.00 0.00 0.00 34 1010.5
20260507113803 79 96 3.0 12.0 0.00 0.00 0.00 34 1010.5
20260507113703 79 99 2.0 12.0 0.00 0.00 0.00 34 1010.6
20260507113603 79 104 2.0 7.0 0.00 0.00 0.00 34 1010.6
20260507113503 79 103 2.0 6.0 0.00 0.00 0.00 34 1010.6
20260507113403 79 100 2.0 6.0 0.00 0.00 0.00 34 1010.6
20260507113303 79 97 2.0 6.0 0.00 0.00 0.00 35 1010.6
20260507113203 79 92 2.0 6.0 0.00 0.00 0.00 35 1010.4
20260507113103 79 95 2.0 6.0 0.00 0.00 0.00 35 1010.5
20260507113003 79 94 1.0 6.0 0.00 0.00 0.00 35 1010.6
20260507112903 79 92 1.0 6.0 0.00 0.00 0.00 35 1010.6
20260507112803 79 98 1.0 8.0 0.00 0.00 0.00 35 1010.6
20260507112703 79 100 1.0 8.0 0.00 0.00 0.00 35 1010.5
20260507112603 79 99 1.0 8.0 0.00 0.00 0.00 35 1010.5
20260507112503 79 102 1.0 8.0 0.00 0.00 0.00 35 1010.4
20260507112403 79 102 1.0 8.0 0.00 0.00 0.00 35 1010.3
20260507112306 79 108 1.0 8.0 0.00 0.00 0.00 35 1010.5
20260507112203 79 112 1.0 8.0 0.00 0.00 0.00 35 1010.5
20260507112103 79 111 1.0 8.0 0.00 0.00 0.00 35 1010.6
20260507112003 79 111 1.0 8.0 0.00 0.00 0.00 36 1010.5
20260507111904 79 110 1.0 8.0 0.00 0.00 0.00 36 1010.6
20260507111803 79 107 1.0 6.0 0.00 0.00 0.00 36 1010.6
20260507111703 79 104 1.0 6.0 0.00 0.00 0.00 37 1010.7
20260507111603 79 104 2.0 9.0 0.00 0.00 0.00 37 1010.7
20260507111503 79 109 2.0 9.0 0.00 0.00 0.00 37 1010.8
20260507111403 79 110 2.0 9.0 0.00 0.00 0.00 37 1010.7
20260507111303 79 107 2.0 9.0 0.00 0.00 0.00 37 1010.7
20260507111203 79 106 2.0 9.0 0.00 0.00 0.00 36 1010.7
20260507111103 79 106 2.0 9.0 0.00 0.00 0.00 36 1010.7
20260507111003 79 107 1.0 9.0 0.00 0.00 0.00 36 1010.6
20260507110903 79 107 1.0 9.0 0.00 0.00 0.00 36 1010.7
20260507110803 79 106 1.0 9.0 0.00 0.00 0.00 35 1010.7
20260507110703 79 108 1.0 9.0 0.00 0.00 0.00 35 1010.6
20260507110603 79 106 1.0 8.0 0.00 0.00 0.00 35 1010.7
20260507110503 79 98 1.0 8.0 0.00 0.00 0.00 35 1010.7
20260507110403 79 96 1.0 8.0 0.00 0.00 0.00 35 1010.7
20260507110303 79 95 1.0 8.0 0.00 0.00 0.00 35 1010.7
20260507110203 79 88 1.0 8.0 0.00 0.00 0.00 35 1010.7
20260507110103 79 93 1.0 8.0 0.00 0.00 0.00 35 1010.7
20260507110003 79 91 1.0 8.0 0.00 0.00 0.00 35 1010.7
20260507105904 79 94 2.0 8.0 0.00 0.00 0.00 35 1010.6
20260507105804 79 98 2.0 8.0 0.00 0.00 0.00 35 1010.6
20260507105704 79 102 1.0 6.0 0.00 0.00 0.00 35 1010.6
20260507105604 79 99 2.0 7.0 0.00 0.00 0.00 35 1010.6
20260507105504 79 96 2.0 7.0 0.00 0.00 0.00 35 1010.6
20260507105404 79 100 2.0 7.0 0.00 0.00 0.00 36 1010.5
20260507105306 79 101 2.0 7.0 0.00 0.00 0.00 35 1010.6
20260507105204 79 104 2.0 7.0 0.00 0.00 0.00 35 1010.6
20260507105104 79 102 1.0 7.0 0.00 0.00 0.00 35 1010.6
20260507105004 79 103 1.0 7.0 0.00 0.00 0.00 35 1010.5
20260507104904 79 99 1.0 7.0 0.00 0.00 0.00 34 1010.5
20260507104804 79 94 1.0 7.0 0.00 0.00 0.00 34 1010.5
20260507104704 79 95 1.0 7.0 0.00 0.00 0.00 34 1010.4
20260507104604 79 99 1.0 6.0 0.00 0.00 0.00 35 1010.4
20260507104504 79 98 1.0 6.0 0.00 0.00 0.00 34 1010.5
20260507104404 79 99 1.0 6.0 0.00 0.00 0.00 35 1010.4
20260507104304 79 91 1.0 6.0 0.00 0.00 0.00 35 1010.5
20260507104204 79 91 1.0 6.0 0.00 0.00 0.00 34 1010.5
20260507104104 79 95 1.0 6.0 0.00 0.00 0.00 34 1010.5
20260507104004 79 71 1.0 5.0 0.00 0.00 0.00 34 1010.5
20260507103904 79 66 1.0 4.0 0.00 0.00 0.00 35 1010.6
20260507103804 79 80 1.0 6.0 0.00 0.00 0.00 35 1010.6
20260507103704 79 80 1.0 6.0 0.00 0.00 0.00 35 1010.7
20260507103604 79 79 1.0 6.0 0.00 0.00 0.00 35 1010.6
20260507103504 79 87 1.0 6.0 0.00 0.00 0.00 35 1010.7
20260507103404 79 88 1.0 6.0 0.00 0.00 0.00 35 1010.7
20260507103304 79 91 1.0 6.0 0.00 0.00 0.00 35 1010.7
20260507103204 79 91 1.0 6.0 0.00 0.00 0.00 35 1010.6
20260507103104 79 90 1.0 6.0 0.00 0.00 0.00 33 1010.6
20260507103004 79 108 1.0 6.0 0.00 0.00 0.00 34 1010.6
20260507102904 79 108 1.0 6.0 0.00 0.00 0.00 33 1010.5
20260507102804 79 115 1.0 6.0 0.00 0.00 0.00 34 1010.6
20260507102704 79 130 1.0 4.0 0.00 0.00 0.00 35 1010.5
20260507102604 79 163 1.0 4.0 0.00 0.00 0.00 35 1010.6
20260507102504 79 153 1.0 4.0 0.00 0.00 0.00 35 1010.6
20260507102404 79 157 0.0 4.0 0.00 0.00 0.00 35 1010.6
20260507102306 79 162 1.0 4.0 0.00 0.00 0.00 35 1010.5
20260507102204 79 173 0.0 4.0 0.00 0.00 0.00 35 1010.6
20260507102104 79 173 0.0 4.0 0.00 0.00 0.00 35 1010.6
20260507102004 79 169 0.0 4.0 0.00 0.00 0.00 35 1010.6
20260507101904 79 194 1.0 4.0 0.00 0.00 0.00 35 1010.7
20260507101804 79 245 0.0 3.0 0.00 0.00 0.00 35 1010.7
20260507101704 79 120 0.0 3.0 0.00 0.00 0.00 35 1010.7
20260507101604 79 124 0.0 3.0 0.00 0.00 0.00 35 1010.7
20260507101504 79 127 0.0 4.0 0.00 0.00 0.00 35 1010.8
20260507101404 79 141 0.0 4.0 0.00 0.00 0.00 35 1010.8
20260507101303 79 143 0.0 4.0 0.00 0.00 0.00 35 1010.6
20260507101204 79 125 0.0 4.0 0.00 0.00 0.00 35 1010.8
20260507101103 79 119 0.0 4.0 0.00 0.00 0.00 35 1010.7
20260507101003 79 114 0.0 4.0 0.00 0.00 0.00 35 1010.7
20260507100903 79 112 0.0 4.0 0.00 0.00 0.00 35 1010.7
20260507100803 79 114 0.0 4.0 0.00 0.00 0.00 35 1010.8
20260507100703 79 108 0.0 4.0 0.00 0.00 0.00 36 1010.8
20260507100603 79 100 0.0 4.0 0.00 0.00 0.00 36 1010.8
20260507100503 79 100 0.0 4.0 0.00 0.00 0.00 36 1010.8
20260507100403 79 106 0.0 2.0 0.00 0.00 0.00 36 1010.8
20260507100303 79 105 0.0 2.0 0.00 0.00 0.00 35 1010.9
20260507100203 79 111 0.0 2.0 0.00 0.00 0.00 36 1010.8
20260507100103 79 121 0.0 2.0 0.00 0.00 0.00 36 1011.0
20260507100004 79 127 0.0 2.0 0.00 0.00 0.00 36 1011.0
20260507095903 79 119 0.0 6.0 0.00 0.00 0.00 36 1011.0
20260507095803 79 117 1.0 6.0 0.00 0.00 0.00 36 1011.1
20260507095703 78 115 1.0 6.0 0.00 0.00 0.00 36 1011.2
20260507095603 78 116 1.0 6.0 0.00 0.00 0.00 35 1011.2
20260507095503 78 113 1.0 6.0 0.00 0.00 0.00 36 1011.2
20260507095403 78 112 1.0 6.0 0.00 0.00 0.00 36 1011.2
20260507095305 78 113 1.0 6.0 0.00 0.00 0.00 36 1011.1
20260507095203 78 111 1.0 6.0 0.00 0.00 0.00 36 1011.1
20260507095103 78 111 1.0 6.0 0.00 0.00 0.00 35 1011.0
20260507095003 78 111 1.0 6.0 0.00 0.00 0.00 35 1011.0
20260507094903 78 109 1.0 4.0 0.00 0.00 0.00 35 1011.0
20260507094803 78 101 0.0 4.0 0.00 0.00 0.00 36 1011.1
20260507094703 78 100 1.0 5.0 0.00 0.00 0.00 35 1011.1
20260507094603 78 99 1.0 5.0 0.00 0.00 0.00 35 1011.1
20260507094504 78 97 0.0 5.0 0.00 0.00 0.00 36 1011.1
20260507094403 78 97 0.0 5.0 0.00 0.00 0.00 36 1011.0
20260507094303 78 97 0.0 5.0 0.00 0.00 0.00 37 1011.0
20260507094203 79 96 1.0 7.0 0.00 0.00 0.00 37 1011.1
20260507094103 79 96 1.0 7.0 0.00 0.00 0.00 36 1011.1
20260507094003 79 97 1.0 7.0 0.00 0.00 0.00 36 1011.2
20260507093903 79 96 1.0 7.0 0.00 0.00 0.00 36 1011.1
20260507093803 79 100 1.0 7.0 0.00 0.00 0.00 36 1011.1
20260507093703 79 96 1.0 7.0 0.00 0.00 0.00 36 1011.1
20260507093603 79 97 1.0 7.0 0.00 0.00 0.00 37 1011.1
20260507093503 79 92 1.0 7.0 0.00 0.00 0.00 36 1011.1
20260507093403 79 92 1.0 7.0 0.00 0.00 0.00 36 1011.2
20260507093303 79 89 1.0 7.0 0.00 0.00 0.00 36 1011.2
20260507093203 79 84 1.0 5.0 0.00 0.00 0.00 37 1011.2
20260507093103 79 81 1.0 5.0 0.00 0.00 0.00 37 1011.1
20260507093003 79 88 1.0 5.0 0.00 0.00 0.00 37 1011.1
20260507092903 79 88 1.0 5.0 0.00 0.00 0.00 37 1011.1
20260507092803 79 90 1.0 5.0 0.00 0.00 0.00 36 1011.1
20260507092703 79 83 1.0 4.0 0.00 0.00 0.00 36 1011.0
20260507092603 79 63 0.0 4.0 0.00 0.00 0.00 37 1011.0
20260507092503 79 52 0.0 4.0 0.00 0.00 0.00 37 1011.1
20260507092403 79 48 0.0 4.0 0.00 0.00 0.00 37 1011.0
20260507092306 79 66 0.0 4.0 0.00 0.00 0.00 37 1011.1
20260507092203 79 56 0.0 4.0 0.00 0.00 0.00 37 1011.1
20260507092103 79 75 0.0 4.0 0.00 0.00 0.00 37 1011.1
20260507092003 79 53 0.0 3.0 0.00 0.00 0.00 37 1011.0
20260507091903 79 68 0.0 3.0 0.00 0.00 0.00 37 1011.2
20260507091803 79 79 0.0 3.0 0.00 0.00 0.00 37 1011.1
20260507091703 79 97 0.0 3.0 0.00 0.00 0.00 37 1011.0
20260507091603 79 94 0.0 3.0 0.00 0.00 0.00 37 1011.0
20260507091503 79 98 0.0 3.0 0.00 0.00 0.00 38 1011.1
20260507091403 79 103 0.0 3.0 0.00 0.00 0.00 38 1011.1
20260507091303 79 112 0.0 3.0 0.00 0.00 0.00 38 1011.1
20260507091203 79 114 0.0 6.0 0.00 0.00 0.00 38 1011.0
20260507091103 79 114 0.0 6.0 0.00 0.00 0.00 38 1011.0
20260507091003 79 114 0.0 6.0 0.00 0.00 0.00 38 1011.0
20260507090903 79 112 0.0 6.0 0.00 0.00 0.00 38 1011.0
20260507090803 79 112 0.0 6.0 0.00 0.00 0.00 38 1011.0
20260507090703 79 107 0.0 6.0 0.00 0.00 0.00 38 1011.1
20260507090603 79 111 0.0 6.0 0.00 0.00 0.00 38 1011.1
20260507090503 79 112 0.0 6.0 0.00 0.00 0.00 38 1011.1
20260507090403 79 108 0.0 6.0 0.00 0.00 0.00 38 1011.2
20260507090303 79 109 0.0 6.0 0.00 0.00 0.00 38 1011.1
20260507090203 79 109 0.0 6.0 0.00 0.00 0.00 39 1011.2
20260507090004 79 104 1.0 7.0 0.00 0.00 0.00 39 1011.0
20260507085903 79 104 1.0 7.0 0.00 0.00 0.00 38 1011.1
20260507085803 79 104 1.0 7.0 0.00 0.00 0.00 39 1011.2
20260507085703 79 103 1.0 7.0 0.00 0.00 0.00 39 1011.3
20260507085603 79 104 1.0 7.0 0.00 0.00 0.00 39 1011.3
20260507085503 79 104 1.0 7.0 0.00 0.00 0.00 39 1011.2
20260507085403 79 104 1.0 7.0 0.00 0.00 0.00 39 1011.2
20260507085306 79 106 1.0 7.0 0.00 0.00 0.00 39 1011.2
20260507085203 79 108 1.0 7.0 0.00 0.00 0.00 39 1011.2
20260507085103 79 109 1.0 7.0 0.00 0.00 0.00 38 1011.3
20260507085003 79 114 1.0 4.0 0.00 0.00 0.00 39 1011.3
20260507084903 79 114 1.0 4.0 0.00 0.00 0.00 39 1011.3
20260507084803 79 114 1.0 4.0 0.00 0.00 0.00 39 1011.4
20260507084703 79 117 1.0 4.0 0.00 0.00 0.00 40 1011.4
20260507084603 79 118 0.0 3.0 0.00 0.00 0.00 40 1011.4
20260507084503 79 118 0.0 3.0 0.00 0.00 0.00 40 1011.4
20260507084403 79 121 0.0 3.0 0.00 0.00 0.00 40 1011.5
20260507084303 79 118 0.0 3.0 0.00 0.00 0.00 40 1011.6
20260507084204 79 118 0.0 3.0 0.00 0.00 0.00 40 1011.6
20260507084104 79 114 0.0 3.0 0.00 0.00 0.00 40 1011.6
20260507084004 79 112 1.0 5.0 0.00 0.00 0.00 40 1011.6
20260507083904 78 111 1.0 5.0 0.00 0.00 0.00 40 1011.6
20260507083804 78 111 1.0 5.0 0.00 0.00 0.00 40 1011.6
20260507083704 78 112 1.0 5.0 0.00 0.00 0.00 40 1011.6
20260507083604 78 112 1.0 5.0 0.00 0.00 0.00 41 1011.6
20260507083504 78 113 1.0 5.0 0.00 0.00 0.00 41 1011.6
20260507083404 78 113 1.0 5.0 0.00 0.00 0.00 41 1011.5
20260507083304 78 112 1.0 5.0 0.00 0.00 0.00 40 1011.6
20260507083204 79 111 1.0 5.0 0.00 0.00 0.00 40 1011.6
20260507083104 79 110 1.0 5.0 0.00 0.00 0.00 40 1011.6
20260507083004 79 110 1.0 4.0 0.00 0.00 0.00 40 1011.8
20260507082904 79 112 1.0 4.0 0.00 0.00 0.00 40 1011.7
20260507082804 79 112 1.0 4.0 0.00 0.00 0.00 40 1011.7
20260507082704 79 110 1.0 4.0 0.00 0.00 0.00 41 1011.7
20260507082604 79 109 1.0 4.0 0.00 0.00 0.00 41 1011.7
20260507082504 79 106 1.0 4.0 0.00 0.00 0.00 41 1011.7
20260507082404 79 109 1.0 4.0 0.00 0.00 0.00 41 1011.6
20260507082306 79 111 0.0 4.0 0.00 0.00 0.00 42 1011.7
20260507082204 79 112 0.0 4.0 0.00 0.00 0.00 41 1011.7
20260507082104 79 114 0.0 4.0 0.00 0.00 0.00 41 1011.7
20260507082004 79 112 0.0 4.0 0.00 0.00 0.00 41 1011.7
20260507081904 79 107 0.0 4.0 0.00 0.00 0.00 41 1011.8
20260507081804 79 104 0.0 4.0 0.00 0.00 0.00 42 1011.8
20260507081704 79 105 1.0 4.0 0.00 0.00 0.00 42 1011.7
20260507081604 79 106 1.0 4.0 0.00 0.00 0.00 41 1011.8
20260507081504 79 108 1.0 4.0 0.00 0.00 0.00 41 1011.8
20260507081404 79 108 1.0 3.0 0.00 0.00 0.00 41 1011.7
20260507081304 79 110 1.0 3.0 0.00 0.00 0.00 41 1011.7
20260507081204 79 111 1.0 3.0 0.00 0.00 0.00 41 1011.7
20260507081104 79 108 1.0 3.0 0.00 0.00 0.00 41 1011.8
20260507081004 79 109 1.0 3.0 0.00 0.00 0.00 41 1011.8
20260507080904 79 112 1.0 3.0 0.00 0.00 0.00 41 1011.9
20260507080804 79 114 1.0 3.0 0.00 0.00 0.00 41 1011.8
20260507080703 80 113 1.0 3.0 0.00 0.00 0.00 41 1011.9
20260507080603 80 113 1.0 3.0 0.00 0.00 0.00 40 1012.0
20260507080503 80 111 0.0 3.0 0.00 0.00 0.00 41 1011.9
20260507080404 80 111 0.0 3.0 0.00 0.00 0.00 40 1011.8
20260507080303 80 107 0.0 3.0 0.00 0.00 0.00 40 1011.8
20260507080204 80 102 0.0 3.0 0.00 0.00 0.00 41 1011.9
20260507080103 80 109 0.0 5.0 0.00 0.00 0.00 41 1011.9
20260507080004 80 105 0.0 5.0 0.00 0.00 0.00 41 1012.0
20260507075903 79 106 0.0 5.0 0.00 0.00 0.00 41 1012.0
20260507075803 80 108 1.0 5.0 0.00 0.00 0.00 40 1012.0
20260507075703 79 106 1.0 5.0 0.00 0.00 0.00 41 1012.0
20260507075603 79 105 1.0 5.0 0.00 0.00 0.00 41 1012.1
20260507075503 80 105 1.0 5.0 0.00 0.00 0.00 41 1012.2
20260507075403 80 106 1.0 5.0 0.00 0.00 0.00 40 1012.1
20260507075306 80 106 1.0 5.0 0.00 0.00 0.00 40 1012.1
20260507075203 79 106 1.0 5.0 0.00 0.00 0.00 41 1012.0
20260507075103 79 104 1.0 5.0 0.00 0.00 0.00 40 1012.1
20260507075003 79 106 1.0 5.0 0.00 0.00 0.00 40 1012.2
20260507074903 79 105 1.0 5.0 0.00 0.00 0.00 40 1012.2
20260507074803 79 101 0.0 4.0 0.00 0.00 0.00 41 1012.2
20260507074703 79 106 0.0 2.0 0.00 0.00 0.00 41 1012.3
20260507074603 79 106 0.0 2.0 0.00 0.00 0.00 42 1012.3
20260507074503 79 105 0.0 5.0 0.00 0.00 0.00 42 1012.3
20260507074403 79 105 0.0 5.0 0.00 0.00 0.00 42 1012.3
20260507074303 79 100 0.0 5.0 0.00 0.00 0.00 42 1012.3
20260507074203 79 100 0.0 5.0 0.00 0.00 0.00 42 1012.4
20260507074103 78 101 0.0 5.0 0.00 0.00 0.00 42 1012.3
20260507074003 78 101 0.0 5.0 0.00 0.00 0.00 43 1012.4
20260507073903 78 103 1.0 5.0 0.00 0.00 0.00 43 1012.5
20260507073803 78 103 1.0 5.0 0.00 0.00 0.00 43 1012.5
20260507073703 78 104 1.0 5.0 0.00 0.00 0.00 43 1012.6
20260507073603 78 105 1.0 5.0 0.00 0.00 0.00 43 1012.6
20260507073503 78 107 1.0 5.0 0.00 0.00 0.00 45 1012.6
20260507073403 78 109 1.0 4.0 0.00 0.00 0.00 45 1012.6
20260507073303 78 112 1.0 4.0 0.00 0.00 0.00 45 1012.6
20260507073203 77 114 1.0 4.0 0.00 0.00 0.00 45 1012.7
20260507073103 77 115 1.0 4.0 0.00 0.00 0.00 45 1012.4
20260507073004 77 116 1.0 4.0 0.00 0.00 0.00 45 1012.5
20260507072903 77 117 1.0 4.0 0.00 0.00 0.00 45 1012.5
20260507072803 77 117 1.0 4.0 0.00 0.00 0.00 45 1012.6
20260507072703 77 119 1.0 4.0 0.00 0.00 0.00 45 1012.6
20260507072603 77 119 1.0 4.0 0.00 0.00 0.00 45 1012.6
20260507072503 77 121 1.0 4.0 0.00 0.00 0.00 46 1012.6
20260507072403 77 122 0.0 4.0 0.00 0.00 0.00 46 1012.6
20260507072306 77 120 0.0 4.0 0.00 0.00 0.00 46 1012.7
20260507072203 77 123 0.0 4.0 0.00 0.00 0.00 46 1012.7
20260507072103 77 117 1.0 4.0 0.00 0.00 0.00 47 1012.6
20260507072003 76 115 1.0 3.0 0.00 0.00 0.00 48 1012.7
20260507071903 76 114 0.0 3.0 0.00 0.00 0.00 48 1012.8
20260507071803 76 113 0.0 3.0 0.00 0.00 0.00 49 1012.7
20260507071703 76 110 1.0 4.0 0.00 0.00 0.00 48 1012.8
20260507071604 76 112 1.0 4.0 0.00 0.00 0.00 48 1012.8
20260507071504 75 111 1.0 4.0 0.00 0.00 0.00 48 1012.9
20260507071403 75 111 1.0 4.0 0.00 0.00 0.00 49 1012.8
20260507071303 75 112 1.0 4.0 0.00 0.00 0.00 49 1012.9
20260507071203 75 112 1.0 4.0 0.00 0.00 0.00 50 1012.9
20260507071103 74 113 0.0 4.0 0.00 0.00 0.00 50 1012.7
20260507071003 74 109 1.0 4.0 0.00 0.00 0.00 51 1012.8
20260507070903 74 110 1.0 4.0 0.00 0.00 0.00 51 1012.8
20260507070803 32 108 1.0 6.0 0.00 0.00 0.00 51 1012.7
20260507070703 73 113 1.0 6.0 0.00 0.00 0.00 53 1012.9
20260507070603 73 110 1.0 6.0 0.00 0.00 0.00 54 1012.9
20260507070503 73 109 0.0 6.0 0.00 0.00 0.00 55 1012.8
20260507070403 72 109 0.0 6.0 0.00 0.00 0.00 56 1012.9
20260507070303 72 108 0.0 6.0 0.00 0.00 0.00 56 1012.9
20260507070203 72 108 0.0 6.0 0.00 0.00 0.00 56 1012.8
20260507070006 71 118 0.0 6.0 0.00 0.00 0.00 60 1012.9
20260507065903 71 122 0.0 6.0 0.00 0.00 0.00 61 1012.8
20260507065803 70 117 0.0 6.0 0.00 0.00 0.00 64 1012.9
20260507065703 70 0 0.0 0.0 0.00 0.00 0.00 65 1012.9
20260507065603 70 0 0.0 0.0 0.00 0.00 0.00 66 1013.0
20260507065503 69 0 0.0 0.0 0.00 0.00 0.00 66 1013.0
20260507065403 69 292 0.0 4.0 0.00 0.00 0.00 67 1013.1
20260507065306 69 292 0.0 4.0 0.00 0.00 0.00 67 1013.1
20260507065203 68 292 0.0 4.0 0.00 0.00 0.00 68 1013.3
20260507065103 68 286 0.0 5.0 0.00 0.00 0.00 68 1013.3
20260507065003 68 291 1.0 5.0 0.00 0.00 0.00 68 1013.1
20260507064903 68 291 1.0 5.0 0.00 0.00 0.00 68 1013.2
20260507064803 67 291 1.0 5.0 0.00 0.00 0.00 68 1013.2
20260507064703 67 291 1.0 5.0 0.00 0.00 0.00 68 1013.1
20260507064603 67 291 1.0 5.0 0.00 0.00 0.00 69 1013.1
20260507064503 67 291 1.0 5.0 0.00 0.00 0.00 70 1013.0
20260507064403 66 291 1.0 6.0 0.00 0.00 0.00 71 1013.1
20260507064303 66 294 2.0 6.0 0.00 0.00 0.00 71 1013.1
20260507064203 66 292 2.0 8.0 0.00 0.00 0.00 71 1013.1
20260507064103 66 294 2.0 8.0 0.00 0.00 0.00 73 1013.2
20260507064003 66 293 2.0 8.0 0.00 0.00 0.00 73 1013.2
20260507063903 65 293 2.0 8.0 0.00 0.00 0.00 73 1013.3
20260507063803 65 293 2.0 8.0 0.00 0.00 0.00 73 1013.2
20260507063703 65 294 2.0 8.0 0.00 0.00 0.00 73 1013.3
20260507063603 65 294 2.0 8.0 0.00 0.00 0.00 73 1013.3
20260507063503 65 294 3.0 8.0 0.00 0.00 0.00 73 1013.4
20260507063403 65 294 3.0 8.0 0.00 0.00 0.00 73 1013.4
20260507063303 65 291 2.0 8.0 0.00 0.00 0.00 73 1013.4
20260507063203 65 291 2.0 6.0 0.00 0.00 0.00 73 1013.4
20260507063103 66 291 2.0 6.0 0.00 0.00 0.00 73 1013.4
20260507063003 65 290 2.0 6.0 0.00 0.00 0.00 73 1013.5
20260507062903 65 290 2.0 6.0 0.00 0.00 0.00 73 1013.5
20260507062803 66 290 2.0 6.0 0.00 0.00 0.00 73 1013.5
20260507062703 66 288 2.0 6.0 0.00 0.00 0.00 73 1013.6
20260507062603 66 288 1.0 6.0 0.00 0.00 0.00 73 1013.5
20260507062503 66 286 1.0 5.0 0.00 0.00 0.00 73 1013.6
20260507062403 66 286 1.0 5.0 0.00 0.00 0.00 73 1013.5
20260507062306 66 287 1.0 5.0 0.00 0.00 0.00 73 1013.5
20260507062203 66 291 1.0 5.0 0.00 0.00 0.00 73 1013.5
20260507062104 66 292 1.0 5.0 0.00 0.00 0.00 73 1013.5
20260507062004 66 293 1.0 5.0 0.00 0.00 0.00 73 1013.4
20260507061904 66 293 0.0 5.0 0.00 0.00 0.00 73 1013.5
20260507061804 66 293 0.0 2.0 0.00 0.00 0.00 73 1013.5
20260507061704 66 293 0.0 2.0 0.00 0.00 0.00 73 1013.5
20260507061604 66 293 0.0 2.0 0.00 0.00 0.00 73 1013.5
20260507061504 66 302 0.0 2.0 0.00 0.00 0.00 73 1013.5
20260507061404 66 330 0.0 2.0 0.00 0.00 0.00 73 1013.6
20260507061304 66 112 0.0 2.0 0.00 0.00 0.00 73 1013.6
20260507061204 66 112 0.0 2.0 0.00 0.00 0.00 73 1013.6
20260507061104 66 107 0.0 2.0 0.00 0.00 0.00 73 1013.6
20260507061004 66 107 0.0 2.0 0.00 0.00 0.00 73 1013.6
20260507060904 65 107 0.0 2.0 0.00 0.00 0.00 73 1013.5
20260507060804 65 107 0.0 2.0 0.00 0.00 0.00 73 1013.6
20260507060704 66 107 0.0 2.0 0.00 0.00 0.00 73 1013.5
20260507060604 66 107 0.0 2.0 0.00 0.00 0.00 73 1013.5
20260507060504 65 107 0.0 2.0 0.00 0.00 0.00 73 1013.4
20260507060404 66 106 0.0 2.0 0.00 0.00 0.00 74 1013.4
20260507060304 66 101 0.0 1.0 0.00 0.00 0.00 74 1013.4
20260507060204 66 101 0.0 1.0 0.00 0.00 0.00 74 1013.4
20260507060104 65 0 0.0 0.0 0.00 0.00 0.00 74 1013.4
20260507060004 65 0 0.0 0.0 0.00 0.00 0.00 74 1013.5
20260507055904 65 0 0.0 0.0 0.00 0.00 0.00 74 1013.5
20260507055804 66 0 0.0 0.0 0.00 0.00 0.00 74 1013.5
20260507055704 66 0 0.0 0.0 0.00 0.00 0.00 74 1013.5
20260507055604 66 0 0.0 0.0 0.00 0.00 0.00 74 1013.5
20260507055504 66 0 0.0 0.0 0.00 0.00 0.00 74 1013.5
20260507055404 66 0 0.0 0.0 0.00 0.00 0.00 74 1013.5
20260507055306 66 0 0.0 0.0 0.00 0.00 0.00 74 1013.5
20260507055204 66 0 0.0 0.0 0.00 0.00 0.00 74 1013.6
20260507055104 66 0 0.0 0.0 0.00 0.00 0.00 74 1013.6
20260507055004 66 0 0.0 0.0 0.00 0.00 0.00 74 1013.6
20260507054904 66 0 0.0 0.0 0.00 0.00 0.00 74 1013.6
20260507054804 66 0 0.0 0.0 0.00 0.00 0.00 74 1013.6
20260507054704 66 0 0.0 0.0 0.00 0.00 0.00 74 1013.5
20260507054604 65 0 0.0 0.0 0.00 0.00 0.00 74 1013.5
20260507054504 66 0 0.0 0.0 0.00 0.00 0.00 74 1013.6
20260507054404 66 0 0.0 0.0 0.00 0.00 0.00 74 1013.6
20260507054304 66 0 0.0 0.0 0.00 0.00 0.00 75 1013.5
20260507054204 66 0 0.0 0.0 0.00 0.00 0.00 75 1013.5
20260507054104 65 112 0.0 1.0 0.00 0.00 0.00 75 1013.6
20260507054004 65 112 0.0 2.0 0.00 0.00 0.00 75 1013.5
20260507053904 65 112 0.0 2.0 0.00 0.00 0.00 75 1013.7
20260507053804 65 112 0.0 3.0 0.00 0.00 0.00 75 1013.6
20260507053704 65 112 1.0 3.0 0.00 0.00 0.00 75 1013.6
20260507053604 65 112 1.0 4.0 0.00 0.00 0.00 75 1013.6
20260507053504 65 112 1.0 4.0 0.00 0.00 0.00 75 1013.5
20260507053404 65 112 1.0 4.0 0.00 0.00 0.00 75 1013.5
20260507053303 65 112 1.0 4.0 0.00 0.00 0.00 75 1013.6
20260507053204 65 112 1.0 4.0 0.00 0.00 0.00 75 1013.6
20260507053104 65 112 1.0 4.0 0.00 0.00 0.00 75 1013.7
20260507053004 65 112 1.0 4.0 0.00 0.00 0.00 75 1013.6
20260507052903 65 112 1.0 4.0 0.00 0.00 0.00 76 1013.7
20260507052803 65 112 1.0 4.0 0.00 0.00 0.00 76 1013.6
20260507052703 65 112 0.0 4.0 0.00 0.00 0.00 76 1013.7
20260507052604 65 112 0.0 3.0 0.00 0.00 0.00 77 1013.6
20260507052504 65 112 0.0 3.0 0.00 0.00 0.00 77 1013.6
20260507052403 65 112 0.0 3.0 0.00 0.00 0.00 77 1013.5
20260507052306 65 112 0.0 3.0 0.00 0.00 0.00 77 1013.6
20260507052203 65 112 0.0 3.0 0.00 0.00 0.00 77 1013.7
20260507052103 64 112 0.0 3.0 0.00 0.00 0.00 77 1013.6
20260507052003 64 112 0.0 3.0 0.00 0.00 0.00 77 1013.6
20260507051903 64 112 0.0 3.0 0.00 0.00 0.00 77 1013.6
20260507051804 64 0 0.0 0.0 0.00 0.00 0.00 77 1013.7
20260507051703 64 0 0.0 0.0 0.00 0.00 0.00 77 1013.7
20260507051603 64 0 0.0 0.0 0.00 0.00 0.00 77 1013.7
20260507051503 64 0 0.0 0.0 0.00 0.00 0.00 77 1013.7
20260507051403 64 0 0.0 0.0 0.00 0.00 0.00 77 1013.8
20260507051303 64 0 0.0 0.0 0.00 0.00 0.00 77 1013.8
20260507051203 64 105 0.0 3.0 0.00 0.00 0.00 77 1013.8
20260507051103 64 108 0.0 3.0 0.00 0.00 0.00 77 1013.8
20260507051003 64 109 0.0 3.0 0.00 0.00 0.00 77 1013.8
20260507050903 64 109 0.0 3.0 0.00 0.00 0.00 77 1013.8
20260507050803 64 109 0.0 3.0 0.00 0.00 0.00 77 1013.9
20260507050703 64 109 0.0 3.0 0.00 0.00 0.00 77 1013.8
20260507050603 64 109 0.0 3.0 0.00 0.00 0.00 77 1013.8
20260507050503 64 109 0.0 3.0 0.00 0.00 0.00 77 1013.8
20260507050403 64 109 0.0 3.0 0.00 0.00 0.00 77 1013.8
20260507050303 64 109 0.0 3.0 0.00 0.00 0.00 77 1013.7
20260507050203 64 112 0.0 3.0 0.00 0.00 0.00 78 1013.7
20260507050103 64 112 0.0 2.0 0.00 0.00 0.00 78 1013.7
20260507050003 64 112 0.0 1.0 0.00 0.00 0.00 78 1013.7
20260507045903 64 112 0.0 2.0 0.00 0.00 0.00 78 1013.7
20260507045803 64 101 0.0 2.0 0.00 0.00 0.00 78 1013.8
20260507045703 64 101 0.0 2.0 0.00 0.00 0.00 78 1013.7
20260507045603 64 100 0.0 2.0 0.00 0.00 0.00 78 1013.7
20260507045503 64 100 0.0 2.0 0.00 0.00 0.00 78 1013.7
20260507045403 64 100 0.0 2.0 0.00 0.00 0.00 78 1013.7
20260507045306 64 97 0.0 2.0 0.00 0.00 0.00 78 1013.7
20260507045203 64 96 0.0 2.0 0.00 0.00 0.00 78 1013.7
20260507045103 64 94 0.0 2.0 0.00 0.00 0.00 78 1013.7
20260507045003 64 94 0.0 2.0 0.00 0.00 0.00 79 1013.7
20260507044903 64 90 0.0 2.0 0.00 0.00 0.00 79 1013.7
20260507044803 64 89 0.0 2.0 0.00 0.00 0.00 79 1013.8
20260507044703 64 89 0.0 2.0 0.00 0.00 0.00 79 1013.8
20260507044603 64 89 0.0 2.0 0.00 0.00 0.00 79 1013.8
20260507044503 64 89 0.0 2.0 0.00 0.00 0.00 79 1013.8
20260507044403 64 89 0.0 2.0 0.00 0.00 0.00 80 1013.8
20260507044303 64 101 0.0 2.0 0.00 0.00 0.00 80 1013.8
20260507044203 64 112 0.0 2.0 0.00 0.00 0.00 80 1013.9
20260507044103 64 112 0.0 2.0 0.00 0.00 0.00 80 1014.0
20260507044003 64 112 0.0 2.0 0.00 0.00 0.00 80 1013.9
20260507043903 63 112 0.0 2.0 0.00 0.00 0.00 80 1013.9
20260507043803 64 112 0.0 2.0 0.00 0.00 0.00 80 1013.9
20260507043703 64 108 0.0 3.0 0.00 0.00 0.00 80 1013.8
20260507043603 64 110 0.0 3.0 0.00 0.00 0.00 80 1013.8
20260507043503 64 110 0.0 3.0 0.00 0.00 0.00 80 1013.9
20260507043403 64 107 0.0 3.0 0.00 0.00 0.00 80 1013.9
20260507043303 63 106 0.0 3.0 0.00 0.00 0.00 80 1013.9
20260507043203 64 106 0.0 3.0 0.00 0.00 0.00 80 1013.9
20260507043103 63 106 0.0 3.0 0.00 0.00 0.00 80 1013.9
20260507043003 64 106 0.0 3.0 0.00 0.00 0.00 80 1013.8
20260507042903 63 104 0.0 3.0 0.00 0.00 0.00 80 1013.8
20260507042803 64 105 0.0 3.0 0.00 0.00 0.00 80 1013.8
20260507042703 64 105 0.0 3.0 0.00 0.00 0.00 80 1013.8
20260507042603 63 101 0.0 2.0 0.00 0.00 0.00 80 1013.9
20260507042503 64 88 0.0 3.0 0.00 0.00 0.00 80 1014.0
20260507042403 64 87 0.0 3.0 0.00 0.00 0.00 80 1014.1
20260507042306 64 95 0.0 3.0 0.00 0.00 0.00 80 1014.0
20260507042203 64 97 0.0 3.0 0.00 0.00 0.00 80 1014.0
20260507042103 64 96 0.0 3.0 0.00 0.00 0.00 80 1013.8
20260507042003 64 96 0.0 3.0 0.00 0.00 0.00 80 1013.9
20260507041903 64 97 0.0 3.0 0.00 0.00 0.00 80 1013.8
20260507041803 64 95 0.0 3.0 0.00 0.00 0.00 80 1013.8
20260507041703 64 95 0.0 3.0 0.00 0.00 0.00 80 1013.8
20260507041603 64 95 0.0 3.0 0.00 0.00 0.00 80 1013.9
20260507041503 64 112 0.0 2.0 0.00 0.00 0.00 80 1013.8
20260507041403 64 112 0.0 2.0 0.00 0.00 0.00 79 1013.8
20260507041303 64 112 0.0 2.0 0.00 0.00 0.00 79 1013.9
20260507041203 64 112 0.0 1.0 0.00 0.00 0.00 79 1014.0
20260507041103 64 0 0.0 0.0 0.00 0.00 0.00 79 1014.0
20260507041003 64 0 0.0 0.0 0.00 0.00 0.00 79 1013.9
20260507040903 64 0 0.0 0.0 0.00 0.00 0.00 79 1013.9
20260507040803 64 0 0.0 0.0 0.00 0.00 0.00 79 1013.9
20260507040703 64 0 0.0 0.0 0.00 0.00 0.00 79 1013.9
20260507040603 64 0 0.0 0.0 0.00 0.00 0.00 79 1013.9
20260507040503 64 0 0.0 0.0 0.00 0.00 0.00 78 1014.0
20260507040403 64 0 0.0 0.0 0.00 0.00 0.00 78 1014.0
20260507040303 64 0 0.0 0.0 0.00 0.00 0.00 78 1014.0
20260507040203 64 0 0.0 0.0 0.00 0.00 0.00 78 1014.0
20260507040003 64 0 0.0 0.0 0.00 0.00 0.00 78 1014.0
20260507035903 64 0 0.0 0.0 0.00 0.00 0.00 78 1014.0
20260507035803 64 0 0.0 0.0 0.00 0.00 0.00 78 1014.0
20260507035703 64 0 0.0 0.0 0.00 0.00 0.00 77 1013.9
20260507035603 64 131 0.0 4.0 0.00 0.00 0.00 77 1013.9
20260507035503 64 131 0.0 4.0 0.00 0.00 0.00 77 1013.9
20260507035403 64 131 0.0 4.0 0.00 0.00 0.00 76 1013.8
20260507035306 64 131 0.0 4.0 0.00 0.00 0.00 76 1013.8
20260507035203 64 131 0.0 4.0 0.00 0.00 0.00 76 1013.8
20260507035103 64 131 0.0 4.0 0.00 0.00 0.00 76 1013.7
20260507035003 64 131 0.0 4.0 0.00 0.00 0.00 76 1013.8
20260507034903 64 131 0.0 4.0 0.00 0.00 0.00 75 1013.8
20260507034803 64 131 0.0 4.0 0.00 0.00 0.00 75 1013.7
20260507034703 64 131 0.0 4.0 0.00 0.00 0.00 74 1013.7
20260507034603 64 135 0.0 2.0 0.00 0.00 0.00 74 1013.7
20260507034503 64 135 0.0 2.0 0.00 0.00 0.00 74 1013.8
20260507034404 64 135 0.0 2.0 0.00 0.00 0.00 74 1013.7
20260507034303 64 135 0.0 2.0 0.00 0.00 0.00 74 1013.7
20260507034203 64 135 0.0 2.0 0.00 0.00 0.00 73 1013.7
20260507034103 64 135 0.0 2.0 0.00 0.00 0.00 73 1013.7
20260507034003 64 135 0.0 2.0 0.00 0.00 0.00 73 1013.6
20260507033903 64 135 0.0 2.0 0.00 0.00 0.00 73 1013.6
20260507033803 64 135 0.0 2.0 0.00 0.00 0.00 73 1013.6
20260507033703 64 135 0.0 2.0 0.00 0.00 0.00 72 1013.5
20260507033603 64 0 0.0 0.0 0.00 0.00 0.00 72 1013.6
20260507033503 64 0 0.0 0.0 0.00 0.00 0.00 72 1013.7
20260507033403 64 0 0.0 0.0 0.00 0.00 0.00 71 1013.5
20260507033303 64 0 0.0 0.0 0.00 0.00 0.00 71 1013.7
20260507033203 64 0 0.0 0.0 0.00 0.00 0.00 71 1013.7
20260507033103 64 0 0.0 0.0 0.00 0.00 0.00 71 1013.5
20260507033003 64 0 0.0 0.0 0.00 0.00 0.00 71 1013.6
20260507032903 64 0 0.0 0.0 0.00 0.00 0.00 70 1013.7
20260507032804 64 0 0.0 0.0 0.00 0.00 0.00 70 1013.7
20260507032704 64 0 0.0 0.0 0.00 0.00 0.00 70 1013.7
20260507032604 64 0 0.0 0.0 0.00 0.00 0.00 70 1013.7
20260507032504 64 0 0.0 0.0 0.00 0.00 0.00 70 1013.6
20260507032404 64 0 0.0 0.0 0.00 0.00 0.00 70 1013.7
20260507032306 64 0 0.0 0.0 0.00 0.00 0.00 70 1013.5
20260507032204 64 0 0.0 0.0 0.00 0.00 0.00 70 1013.5
20260507032104 64 0 0.0 0.0 0.00 0.00 0.00 70 1013.4
20260507032004 64 0 0.0 0.0 0.00 0.00 0.00 70 1013.4
20260507031904 64 0 0.0 0.0 0.00 0.00 0.00 70 1013.5
20260507031804 64 0 0.0 0.0 0.00 0.00 0.00 70 1013.6
20260507031704 64 0 0.0 0.0 0.00 0.00 0.00 70 1013.6
20260507031604 64 0 0.0 0.0 0.00 0.00 0.00 70 1013.5
20260507031504 64 0 0.0 0.0 0.00 0.00 0.00 70 1013.5
20260507031404 64 0 0.0 0.0 0.00 0.00 0.00 70 1013.5
20260507031304 64 0 0.0 0.0 0.00 0.00 0.00 70 1013.4
20260507031204 64 0 0.0 0.0 0.00 0.00 0.00 70 1013.5
20260507031104 64 0 0.0 0.0 0.00 0.00 0.00 70 1013.5
20260507031004 64 0 0.0 0.0 0.00 0.00 0.00 70 1013.4
20260507030904 64 0 0.0 0.0 0.00 0.00 0.00 70 1013.5
20260507030804 64 0 0.0 0.0 0.00 0.00 0.00 70 1013.6
20260507030704 64 0 0.0 0.0 0.00 0.00 0.00 70 1013.6
20260507030604 64 0 0.0 0.0 0.00 0.00 0.00 71 1013.6
20260507030504 64 0 0.0 0.0 0.00 0.00 0.00 71 1013.5
20260507030404 64 0 0.0 0.0 0.00 0.00 0.00 71 1013.6
20260507030304 64 0 0.0 0.0 0.00 0.00 0.00 71 1013.7
20260507030204 64 0 0.0 0.0 0.00 0.00 0.00 72 1013.6
20260507030104 64 0 0.0 0.0 0.00 0.00 0.00 72 1013.5
20260507030004 64 0 0.0 0.0 0.00 0.00 0.00 72 1013.5
20260507025904 65 0 0.0 0.0 0.00 0.00 0.00 72 1013.5
20260507025804 64 0 0.0 0.0 0.00 0.00 0.00 72 1013.5
20260507025704 64 0 0.0 0.0 0.00 0.00 0.00 72 1013.4
20260507025604 64 0 0.0 0.0 0.00 0.00 0.00 73 1013.4
20260507025504 64 0 0.0 0.0 0.00 0.00 0.00 73 1013.4
20260507025404 64 0 0.0 0.0 0.00 0.00 0.00 73 1013.4
20260507025306 64 0 0.0 0.0 0.00 0.00 0.00 73 1013.4
20260507025204 64 0 0.0 0.0 0.00 0.00 0.00 73 1013.5
20260507025104 64 0 0.0 0.0 0.00 0.00 0.00 73 1013.6
20260507025004 64 0 0.0 0.0 0.00 0.00 0.00 73 1013.6
20260507024904 64 0 0.0 0.0 0.00 0.00 0.00 73 1013.6
20260507024804 64 0 0.0 0.0 0.00 0.00 0.00 73 1013.5
20260507024703 64 0 0.0 0.0 0.00 0.00 0.00 73 1013.5
20260507024603 64 112 0.0 1.0 0.00 0.00 0.00 73 1013.4
20260507024504 64 112 0.0 1.0 0.00 0.00 0.00 73 1013.3
20260507024404 64 112 0.0 2.0 0.00 0.00 0.00 73 1013.3
20260507024304 64 112 0.0 2.0 0.00 0.00 0.00 73 1013.2
20260507024203 64 112 0.0 2.0 0.00 0.00 0.00 74 1013.1
20260507024103 64 112 0.0 2.0 0.00 0.00 0.00 74 1013.2
20260507024003 64 112 0.0 2.0 0.00 0.00 0.00 74 1013.1
20260507023903 64 112 0.0 2.0 0.00 0.00 0.00 74 1013.1
20260507023803 64 112 0.0 2.0 0.00 0.00 0.00 74 1013.1
20260507023703 64 112 0.0 2.0 0.00 0.00 0.00 75 1013.2
20260507023603 64 112 0.0 2.0 0.00 0.00 0.00 75 1013.3
20260507023503 64 112 0.0 2.0 0.00 0.00 0.00 75 1013.3
20260507023403 64 0 0.0 0.0 0.00 0.00 0.00 75 1013.3
20260507023303 64 0 0.0 0.0 0.00 0.00 0.00 76 1013.4
20260507023203 64 0 0.0 0.0 0.00 0.00 0.00 76 1013.4
20260507023103 64 0 0.0 0.0 0.00 0.00 0.00 76 1013.4
20260507023004 64 112 0.0 2.0 0.00 0.00 0.00 76 1013.4
20260507022903 64 112 0.0 2.0 0.00 0.00 0.00 76 1013.5
20260507022803 64 112 0.0 2.0 0.00 0.00 0.00 76 1013.5
20260507022703 64 112 0.0 2.0 0.00 0.00 0.00 76 1013.5
20260507022603 64 112 0.0 2.0 0.00 0.00 0.00 76 1013.3
20260507022503 64 112 0.0 2.0 0.00 0.00 0.00 76 1013.2
20260507022403 64 112 0.0 2.0 0.00 0.00 0.00 77 1013.1
20260507022306 64 112 0.0 2.0 0.00 0.00 0.00 77 1013.1
20260507022203 64 112 0.0 2.0 0.00 0.00 0.00 77 1013.2
20260507022103 64 112 0.0 2.0 0.00 0.00 0.00 77 1013.4
20260507022003 64 0 0.0 0.0 0.00 0.00 0.00 77 1013.6
20260507021903 64 0 0.0 0.0 0.00 0.00 0.00 78 1013.5
20260507021803 64 0 0.0 0.0 0.00 0.00 0.00 78 1013.6
20260507021703 64 0 0.0 0.0 0.00 0.00 0.00 78 1013.5
20260507021603 64 0 0.0 0.0 0.00 0.00 0.00 78 1013.7
20260507021503 64 0 0.0 0.0 0.00 0.00 0.00 78 1013.7
20260507021404 64 0 0.0 0.0 0.00 0.00 0.00 78 1013.7
20260507021303 64 0 0.0 0.0 0.00 0.00 0.00 78 1013.6
20260507021203 64 0 0.0 0.0 0.00 0.00 0.00 78 1013.7
20260507021103 64 0 0.0 0.0 0.00 0.00 0.00 78 1013.7
20260507021003 64 0 0.0 0.0 0.00 0.00 0.00 78 1013.7
20260507020903 64 0 0.0 0.0 0.00 0.00 0.00 78 1013.6
20260507020803 64 0 0.0 0.0 0.00 0.00 0.00 78 1013.6
20260507020703 64 0 0.0 0.0 0.00 0.00 0.00 79 1013.7
20260507020603 64 0 0.0 0.0 0.00 0.00 0.00 79 1013.7
20260507020503 64 0 0.0 0.0 0.00 0.00 0.00 79 1013.6
20260507020403 64 0 0.0 0.0 0.00 0.00 0.00 79 1013.6
20260507020303 64 0 0.0 0.0 0.00 0.00 0.00 79 1013.7
20260507020203 64 0 0.0 0.0 0.00 0.00 0.00 79 1013.7
20260507020103 64 0 0.0 0.0 0.00 0.00 0.00 79 1013.7
20260507020003 64 0 0.0 0.0 0.00 0.00 0.00 79 1013.7
20260507015903 64 0 0.0 0.0 0.00 0.00 0.00 79 1013.6
20260507015803 64 135 0.0 1.0 0.00 0.00 0.00 79 1013.7
20260507015703 64 135 0.0 1.0 0.00 0.00 0.00 79 1013.6
20260507015603 64 135 0.0 1.0 0.00 0.00 0.00 80 1013.7
20260507015503 64 135 0.0 1.0 0.00 0.00 0.00 80 1013.6
20260507015403 64 135 0.0 1.0 0.00 0.00 0.00 80 1013.5
20260507015306 64 135 0.0 1.0 0.00 0.00 0.00 80 1013.4
20260507015203 64 135 0.0 1.0 0.00 0.00 0.00 80 1013.5
20260507015103 64 135 0.0 1.0 0.00 0.00 0.00 80 1013.5
20260507015003 64 135 0.0 1.0 0.00 0.00 0.00 80 1013.5
20260507014903 64 135 0.0 1.0 0.00 0.00 0.00 80 1013.5
20260507014803 64 135 0.0 1.0 0.00 0.00 0.00 80 1013.6
20260507014703 64 135 0.0 1.0 0.00 0.00 0.00 80 1013.6
20260507014603 64 135 0.0 2.0 0.00 0.00 0.00 80 1013.7
20260507014503 64 125 0.0 2.0 0.00 0.00 0.00 80 1013.6
20260507014403 64 125 0.0 2.0 0.00 0.00 0.00 80 1013.6
20260507014303 64 125 0.0 2.0 0.00 0.00 0.00 80 1013.6
20260507014203 64 125 0.0 2.0 0.00 0.00 0.00 80 1013.6
20260507014103 64 125 0.0 2.0 0.00 0.00 0.00 80 1013.5
20260507014003 64 123 0.0 2.0 0.00 0.00 0.00 80 1013.6
20260507013903 64 123 0.0 2.0 0.00 0.00 0.00 80 1013.6
20260507013803 64 123 0.0 2.0 0.00 0.00 0.00 79 1013.6
20260507013703 64 120 0.0 2.0 0.00 0.00 0.00 79 1013.7
20260507013603 64 112 0.0 2.0 0.00 0.00 0.00 79 1013.6
20260507013503 64 0 0.0 0.0 0.00 0.00 0.00 79 1013.7
20260507013403 64 0 0.0 0.0 0.00 0.00 0.00 79 1013.8
20260507013303 64 0 0.0 0.0 0.00 0.00 0.00 79 1013.7
20260507013203 64 0 0.0 0.0 0.00 0.00 0.00 79 1013.8
20260507013103 64 0 0.0 0.0 0.00 0.00 0.00 79 1013.8
20260507013003 64 0 0.0 0.0 0.00 0.00 0.00 79 1013.8
20260507012903 64 0 0.0 0.0 0.00 0.00 0.00 79 1013.8
20260507012803 64 0 0.0 0.0 0.00 0.00 0.00 79 1013.8
20260507012703 64 0 0.0 0.0 0.00 0.00 0.00 79 1013.9
20260507012603 64 0 0.0 0.0 0.00 0.00 0.00 79 1013.9
20260507012503 64 292 0.0 1.0 0.00 0.00 0.00 79 1013.9
20260507012403 64 292 0.0 1.0 0.00 0.00 0.00 79 1014.1
20260507012306 64 292 0.0 1.0 0.00 0.00 0.00 79 1014.0
20260507012203 64 292 0.0 1.0 0.00 0.00 0.00 79 1014.1
20260507012103 64 292 0.0 1.0 0.00 0.00 0.00 79 1013.9
20260507012003 64 292 0.0 1.0 0.00 0.00 0.00 79 1014.0
20260507011903 64 292 0.0 1.0 0.00 0.00 0.00 79 1013.9
20260507011803 64 292 0.0 1.0 0.00 0.00 0.00 79 1013.9
20260507011704 64 292 0.0 3.0 0.00 0.00 0.00 79 1014.1
20260507011604 64 292 0.0 3.0 0.00 0.00 0.00 79 1013.9
20260507011504 64 292 0.0 3.0 0.00 0.00 0.00 79 1013.9
20260507011404 64 292 0.0 3.0 0.00 0.00 0.00 79 1013.8
20260507011304 64 294 0.0 3.0 0.00 0.00 0.00 79 1013.8
20260507011204 64 294 0.0 3.0 0.00 0.00 0.00 79 1013.8
20260507011104 64 294 0.0 3.0 0.00 0.00 0.00 79 1013.8
20260507011004 64 294 0.0 3.0 0.00 0.00 0.00 79 1013.9
20260507010904 64 294 0.0 3.0 0.00 0.00 0.00 79 1013.9
20260507010804 64 294 0.0 3.0 0.00 0.00 0.00 79 1013.9
20260507010704 64 297 0.0 2.0 0.00 0.00 0.00 79 1013.9
20260507010604 64 297 0.0 2.0 0.00 0.00 0.00 79 1013.9
20260507010504 64 300 0.0 2.0 0.00 0.00 0.00 79 1014.0
20260507010404 64 300 0.0 2.0 0.00 0.00 0.00 79 1013.9
20260507010304 64 292 0.0 2.0 0.00 0.00 0.00 79 1014.0
20260507010204 64 292 0.0 2.0 0.00 0.00 0.00 79 1014.0
20260507010104 64 112 0.0 2.0 0.00 0.00 0.00 79 1013.9
20260507010004 64 112 0.0 2.0 0.00 0.00 0.00 79 1013.9
20260507005904 64 112 0.0 2.0 0.00 0.00 0.00 79 1013.9
20260507005804 64 112 0.0 2.0 0.00 0.00 0.00 79 1013.9
20260507005704 64 112 0.0 2.0 0.00 0.00 0.00 79 1014.1
20260507005604 64 112 0.0 2.0 0.00 0.00 0.00 79 1014.0
20260507005504 64 112 0.0 2.0 0.00 0.00 0.00 79 1014.0
20260507005404 64 112 0.0 2.0 0.00 0.00 0.00 79 1013.9
20260507005305 64 112 0.0 2.0 0.00 0.00 0.00 79 1013.9
20260507005204 64 112 0.0 2.0 0.00 0.00 0.00 79 1013.9
20260507005104 64 112 0.0 2.0 0.00 0.00 0.00 79 1013.8
20260507005004 64 109 0.0 4.0 0.00 0.00 0.00 79 1013.8
20260507004904 64 108 0.0 4.0 0.00 0.00 0.00 79 1013.9
20260507004804 64 105 0.0 4.0 0.00 0.00 0.00 79 1013.8
20260507004704 64 107 0.0 4.0 0.00 0.00 0.00 79 1013.8
20260507004604 64 106 0.0 4.0 0.00 0.00 0.00 79 1013.8
20260507004504 64 106 0.0 4.0 0.00 0.00 0.00 79 1013.8
20260507004404 64 106 0.0 4.0 0.00 0.00 0.00 79 1013.8
20260507004304 64 106 0.0 4.0 0.00 0.00 0.00 79 1013.8
20260507004204 64 107 0.0 4.0 0.00 0.00 0.00 79 1013.9
20260507004104 64 107 0.0 4.0 0.00 0.00 0.00 79 1013.9
20260507004004 64 107 0.0 4.0 0.00 0.00 0.00 79 1014.0
20260507003904 64 106 0.0 3.0 0.00 0.00 0.00 79 1013.9
20260507003804 64 110 0.0 2.0 0.00 0.00 0.00 79 1014.0
20260507003704 64 109 0.0 2.0 0.00 0.00 0.00 79 1014.0
20260507003604 64 115 0.0 1.0 0.00 0.00 0.00 79 1014.1
20260507003504 64 115 0.0 1.0 0.00 0.00 0.00 79 1014.1
20260507003404 64 117 0.0 1.0 0.00 0.00 0.00 79 1014.1
20260507003304 65 117 0.0 1.0 0.00 0.00 0.00 79 1014.1
20260507003203 65 119 0.0 1.0 0.00 0.00 0.00 79 1014.1
20260507003103 65 119 0.0 1.0 0.00 0.00 0.00 79 1014.1
20260507003004 64 120 0.0 1.0 0.00 0.00 0.00 79 1014.1
20260507002903 65 120 0.0 1.0 0.00 0.00 0.00 79 1014.2
20260507002803 65 124 0.0 1.0 0.00 0.00 0.00 79 1014.2
20260507002703 65 135 0.0 1.0 0.00 0.00 0.00 79 1014.3
20260507002603 65 135 0.0 1.0 0.00 0.00 0.00 79 1014.2
20260507002503 65 135 0.0 1.0 0.00 0.00 0.00 79 1014.3
20260507002403 65 0 0.0 0.0 0.00 0.00 0.00 79 1014.4
20260507002306 65 0 0.0 0.0 0.00 0.00 0.00 79 1014.3
20260507002203 65 0 0.0 0.0 0.00 0.00 0.00 79 1014.3
20260507002103 65 0 0.0 0.0 0.00 0.00 0.00 79 1014.3
20260507002003 65 0 0.0 0.0 0.00 0.00 0.00 79 1014.4
20260507001903 65 0 0.0 0.0 0.00 0.00 0.00 79 1014.5
20260507001803 65 0 0.0 0.0 0.00 0.00 0.00 79 1014.4
20260507001703 65 112 0.0 1.0 0.00 0.00 0.00 79 1014.4
20260507001603 65 112 0.0 1.0 0.00 0.00 0.00 79 1014.5
20260507001503 65 112 0.0 2.0 0.00 0.00 0.00 79 1014.5
20260507001403 65 112 0.0 2.0 0.00 0.00 0.00 79 1014.5
20260507001303 65 112 0.0 3.0 0.00 0.00 0.00 79 1014.4
20260507001203 65 112 0.0 3.0 0.00 0.00 0.00 79 1014.5
20260507001103 65 112 0.0 3.0 0.00 0.00 0.00 79 1014.5
20260507001003 65 112 0.0 3.0 0.00 0.00 0.00 79 1014.4
20260507000903 65 112 0.0 3.0 0.00 0.00 0.00 79 1014.4
20260507000803 65 112 0.0 3.0 0.00 0.00 0.00 79 1014.5
20260507000703 65 112 0.0 3.0 0.00 0.00 0.00 79 1014.5
20260507000603 65 112 0.0 3.0 0.00 0.00 0.00 79 1014.4
20260507000503 65 112 0.0 3.0 0.00 0.00 0.00 79 1014.4
20260507000405 65 112 0.0 3.0 0.00 0.00 0.00 79 1014.4
20260507000306 65 0 0.0 0.0 0.00 0.00 0.00 79 1014.4
20260507000205 65 0 0.0 0.0 0.00 0.00 0.00 79 1014.4
20260507000004 65 112 0.0 2.0 0.00 0.00 0.00 79 1014.4
20260506235903 65 112 0.0 2.0 0.00 0.00 0.00 79 1014.4
20260506235803 65 112 0.0 2.0 0.00 0.00 0.00 79 1014.4
20260506235703 65 112 0.0 2.0 0.00 0.00 0.00 79 1014.4
20260506235603 65 112 0.0 2.0 0.00 0.00 0.00 79 1014.4
20260506235503 65 112 0.0 2.0 0.00 0.00 0.00 79 1014.4
20260506235403 65 112 0.0 2.0 0.00 0.00 0.00 79 1014.3
20260506235306 65 112 0.0 2.0 0.00 0.00 0.00 79 1014.3
20260506235203 65 112 0.0 2.0 0.00 0.00 0.00 79 1014.4
20260506235103 65 112 0.0 2.0 0.00 0.00 0.00 79 1014.3
20260506235003 65 112 0.0 2.0 0.00 0.00 0.00 79 1014.3
20260506234903 65 104 0.0 2.0 0.00 0.00 0.00 79 1014.3
20260506234803 65 102 0.0 2.0 0.00 0.00 0.00 79 1014.4
20260506234703 65 108 0.0 4.0 0.00 0.00 0.00 79 1014.4
20260506234603 65 109 0.0 4.0 0.00 0.00 0.00 79 1014.4
20260506234503 65 113 0.0 4.0 0.00 0.00 0.00 79 1014.4
20260506234403 65 114 1.0 5.0 0.00 0.00 0.00 79 1014.4
20260506234303 65 114 0.0 5.0 0.00 0.00 0.00 79 1014.4
20260506234203 65 114 0.0 5.0 0.00 0.00 0.00 79 1014.5
20260506234103 65 113 1.0 5.0 0.00 0.00 0.00 79 1014.4
20260506234003 65 113 1.0 5.0 0.00 0.00 0.00 79 1014.4
20260506233903 65 115 1.0 5.0 0.00 0.00 0.00 79 1014.3
20260506233803 65 116 1.0 5.0 0.00 0.00 0.00 79 1014.3
20260506233703 65 114 0.0 5.0 0.00 0.00 0.00 79 1014.2
20260506233603 65 113 0.0 5.0 0.00 0.00 0.00 79 1014.2
20260506233503 65 109 0.0 5.0 0.00 0.00 0.00 79 1014.2
20260506233403 65 107 0.0 3.0 0.00 0.00 0.00 79 1014.1
20260506233303 65 106 0.0 3.0 0.00 0.00 0.00 79 1014.2
20260506233203 65 106 0.0 3.0 0.00 0.00 0.00 79 1014.1
20260506233103 65 106 0.0 3.0 0.00 0.00 0.00 79 1014.2
20260506233003 65 102 0.0 2.0 0.00 0.00 0.00 79 1014.1
20260506232903 65 104 0.0 2.0 0.00 0.00 0.00 78 1014.1
20260506232803 65 108 0.0 2.0 0.00 0.00 0.00 79 1014.0
20260506232703 65 107 0.0 2.0 0.00 0.00 0.00 78 1014.0
20260506232603 65 107 0.0 2.0 0.00 0.00 0.00 78 1014.0
20260506232503 65 107 0.0 2.0 0.00 0.00 0.00 78 1014.1
20260506232403 65 106 0.0 2.0 0.00 0.00 0.00 78 1014.0
20260506232306 65 109 0.0 2.0 0.00 0.00 0.00 78 1014.1
20260506232203 65 108 0.0 2.0 0.00 0.00 0.00 78 1014.0
20260506232103 65 110 0.0 2.0 0.00 0.00 0.00 78 1014.0
20260506232003 65 112 0.0 4.0 0.00 0.00 0.00 78 1014.1
20260506231903 65 108 0.0 4.0 0.00 0.00 0.00 78 1014.0
20260506231803 65 104 0.0 4.0 0.00 0.00 0.00 78 1014.0
20260506231703 65 105 0.0 4.0 0.00 0.00 0.00 77 1014.0
20260506231603 65 105 0.0 4.0 0.00 0.00 0.00 77 1013.8
20260506231503 65 90 0.0 4.0 0.00 0.00 0.00 77 1013.9
20260506231403 65 85 0.0 4.0 0.00 0.00 0.00 77 1013.9
20260506231303 65 85 0.0 4.0 0.00 0.00 0.00 77 1014.0
20260506231203 65 85 0.0 4.0 0.00 0.00 0.00 77 1013.9
20260506231004 65 104 0.0 4.0 0.00 0.00 0.00 76 1014.0
20260506230904 65 82 0.0 4.0 0.00 0.00 0.00 76 1014.0
20260506230803 65 63 0.0 4.0 0.00 0.00 0.00 76 1013.9
20260506230704 65 54 0.0 4.0 0.00 0.00 0.00 76 1013.9
20260506230604 65 37 0.0 4.0 0.00 0.00 0.00 76 1014.0
20260506230504 65 37 0.0 4.0 0.00 0.00 0.00 76 1013.9
20260506230403 65 50 0.0 4.0 0.00 0.00 0.00 76 1013.9
20260506230303 65 50 0.0 4.0 0.00 0.00 0.00 75 1013.9
20260506230203 65 61 0.0 4.0 0.00 0.00 0.00 75 1014.0
20260506230103 65 61 0.0 4.0 0.00 0.00 0.00 75 1013.8
20260506230004 65 51 0.0 4.0 0.00 0.00 0.00 74 1013.9
20260506225903 65 94 0.0 5.0 0.00 0.00 0.00 74 1013.9
20260506225803 65 105 0.0 5.0 0.00 0.00 0.00 74 1014.0
20260506225703 65 105 0.0 5.0 0.00 0.00 0.00 74 1013.9
20260506225603 65 99 0.0 5.0 0.00 0.00 0.00 74 1013.9
20260506225503 65 96 0.0 5.0 0.00 0.00 0.00 74 1013.8
20260506225403 65 104 0.0 5.0 0.00 0.00 0.00 73 1013.9
20260506225305 65 104 0.0 5.0 0.00 0.00 0.00 73 1013.8
20260506225203 65 99 0.0 5.0 0.00 0.00 0.00 73 1013.8
20260506225103 65 99 0.0 5.0 0.00 0.00 0.00 72 1013.8
20260506225003 65 115 0.0 5.0 0.00 0.00 0.00 71 1013.8
20260506224903 65 105 0.0 4.0 0.00 0.00 0.00 71 1013.8
20260506224803 65 187 0.0 4.0 0.00 0.00 0.00 71 1013.8
20260506224703 65 187 0.0 4.0 0.00 0.00 0.00 70 1013.9
20260506224603 65 166 0.0 4.0 0.00 0.00 0.00 70 1013.8
20260506224503 65 117 0.0 4.0 0.00 0.00 0.00 70 1013.8
20260506224403 65 118 0.0 4.0 0.00 0.00 0.00 70 1013.7
20260506224303 65 133 0.0 2.0 0.00 0.00 0.00 69 1013.7
20260506224203 65 136 0.0 3.0 0.00 0.00 0.00 69 1013.8
20260506224103 65 313 0.0 3.0 0.00 0.00 0.00 69 1013.7
20260506224003 65 83 0.0 3.0 0.00 0.00 0.00 69 1013.8
20260506223903 65 102 0.0 3.0 0.00 0.00 0.00 68 1013.6
20260506223803 65 109 0.0 3.0 0.00 0.00 0.00 68 1013.6
20260506223703 65 109 0.0 3.0 0.00 0.00 0.00 68 1013.7
20260506223603 65 106 0.0 3.0 0.00 0.00 0.00 68 1013.7
20260506223503 65 111 0.0 3.0 0.00 0.00 0.00 68 1013.6
20260506223403 65 108 0.0 3.0 0.00 0.00 0.00 67 1013.5
20260506223303 65 108 0.0 3.0 0.00 0.00 0.00 67 1013.5
20260506223203 65 105 0.0 3.0 0.00 0.00 0.00 67 1013.6
20260506223103 65 116 0.0 3.0 0.00 0.00 0.00 67 1013.5
20260506223003 65 118 0.0 2.0 0.00 0.00 0.00 67 1013.5
20260506222903 65 113 0.0 2.0 0.00 0.00 0.00 68 1013.4
20260506222803 65 118 0.0 3.0 0.00 0.00 0.00 68 1013.5
20260506222703 65 118 0.0 3.0 0.00 0.00 0.00 67 1013.5
20260506222603 65 120 0.0 3.0 0.00 0.00 0.00 68 1013.5
20260506222503 65 114 0.0 3.0 0.00 0.00 0.00 68 1013.6
20260506222403 65 185 0.0 3.0 0.00 0.00 0.00 68 1013.5
20260506222305 65 252 0.0 3.0 0.00 0.00 0.00 68 1013.5
20260506222203 65 263 0.0 3.0 0.00 0.00 0.00 68 1013.5
20260506222103 65 263 0.0 3.0 0.00 0.00 0.00 69 1013.5
20260506222003 65 269 0.0 3.0 0.00 0.00 0.00 69 1013.5
20260506221903 65 272 0.0 3.0 0.00 0.00 0.00 69 1013.7
20260506221803 65 283 0.0 3.0 0.00 0.00 0.00 69 1013.6
20260506221703 65 283 0.0 3.0 0.00 0.00 0.00 69 1013.8
20260506221603 65 283 0.0 3.0 0.00 0.00 0.00 69 1013.7
20260506221504 65 282 0.0 3.0 0.00 0.00 0.00 69 1013.6
20260506221403 65 270 0.0 1.0 0.00 0.00 0.00 70 1013.9
20260506221303 65 270 0.0 1.0 0.00 0.00 0.00 70 1013.7
20260506221203 65 112 0.0 2.0 0.00 0.00 0.00 70 1013.8
20260506221103 65 112 0.0 2.0 0.00 0.00 0.00 70 1013.8
20260506221003 65 112 0.0 2.0 0.00 0.00 0.00 70 1013.7
20260506220903 65 112 0.0 2.0 0.00 0.00 0.00 70 1013.6
20260506220803 65 112 0.0 2.0 0.00 0.00 0.00 70 1013.4
20260506220703 65 124 0.0 2.0 0.00 0.00 0.00 70 1013.5
20260506220603 65 124 0.0 2.0 0.00 0.00 0.00 70 1013.6
20260506220503 65 124 0.0 2.0 0.00 0.00 0.00 70 1013.6
20260506220403 65 124 0.0 2.0 0.00 0.00 0.00 71 1013.5
20260506220303 65 124 0.0 2.0 0.00 0.00 0.00 71 1013.5
20260506220203 65 270 0.0 1.0 0.00 0.00 0.00 72 1013.6
20260506220040 65 270 0.0 1.0 0.00 0.00 0.00 72 1013.6
20260506215903 65 270 0.0 1.0 0.00 0.00 0.00 73 1013.5
20260506215803 65 270 0.0 1.0 0.00 0.00 0.00 73 1013.4
20260506215703 64 0 0.0 0.0 0.00 0.00 0.00 73 1013.5
20260506215603 64 0 0.0 0.0 0.00 0.00 0.00 74 1013.6
20260506215503 64 0 0.0 0.0 0.00 0.00 0.00 74 1013.6
20260506215403 64 0 0.0 0.0 0.00 0.00 0.00 74 1013.7
20260506215305 64 0 0.0 0.0 0.00 0.00 0.00 75 1013.8
20260506215203 64 0 0.0 0.0 0.00 0.00 0.00 75 1013.7
20260506215103 64 0 0.0 0.0 0.00 0.00 0.00 75 1013.7
20260506215003 64 0 0.0 0.0 0.00 0.00 0.00 76 1013.9
20260506214903 64 0 0.0 0.0 0.00 0.00 0.00 76 1013.8
20260506214803 64 90 0.0 1.0 0.00 0.00 0.00 76 1013.8
20260506214703 64 90 0.0 1.0 0.00 0.00 0.00 76 1013.8
20260506214603 64 90 0.0 1.0 0.00 0.00 0.00 76 1013.8
20260506214504 64 102 0.0 3.0 0.00 0.00 0.00 76 1013.8
20260506214404 64 102 0.0 3.0 0.00 0.00 0.00 76 1013.8
20260506214304 64 105 0.0 3.0 0.00 0.00 0.00 76 1013.9
20260506214204 64 105 0.0 3.0 0.00 0.00 0.00 76 1013.9
20260506214104 64 105 0.0 3.0 0.00 0.00 0.00 76 1013.7
20260506214004 64 105 0.0 3.0 0.00 0.00 0.00 76 1013.8
20260506213904 64 105 0.0 3.0 0.00 0.00 0.00 76 1013.7
20260506213804 64 107 0.0 3.0 0.00 0.00 0.00 76 1013.8
20260506213704 64 107 0.0 3.0 0.00 0.00 0.00 77 1013.6
20260506213604 64 107 0.0 3.0 0.00 0.00 0.00 77 1013.7
20260506213504 64 112 0.0 1.0 0.00 0.00 0.00 77 1013.7
20260506213404 64 112 0.0 1.0 0.00 0.00 0.00 77 1013.7
20260506213304 64 0 0.0 0.0 0.00 0.00 0.00 77 1013.7
20260506213204 64 0 0.0 0.0 0.00 0.00 0.00 77 1013.7
20260506213104 64 0 0.0 0.0 0.00 0.00 0.00 77 1013.7
20260506213004 64 0 0.0 0.0 0.00 0.00 0.00 78 1013.4
20260506212904 64 0 0.0 0.0 0.00 0.00 0.00 78 1013.5
20260506212804 64 0 0.0 0.0 0.00 0.00 0.00 78 1013.5
20260506212704 64 0 0.0 0.0 0.00 0.00 0.00 78 1013.5
20260506212604 64 0 0.0 0.0 0.00 0.00 0.00 78 1013.4
20260506212504 64 0 0.0 0.0 0.00 0.00 0.00 78 1013.3
20260506212404 64 0 0.0 0.0 0.00 0.00 0.00 78 1013.3
20260506212306 64 0 0.0 0.0 0.00 0.00 0.00 79 1013.2
20260506212204 64 0 0.0 0.0 0.00 0.00 0.00 79 1013.2
20260506212104 64 0 0.0 0.0 0.00 0.00 0.00 79 1013.3
20260506212004 64 131 0.0 3.0 0.00 0.00 0.00 79 1013.2
20260506211904 64 131 0.0 3.0 0.00 0.00 0.00 79 1013.2
20260506211804 64 131 0.0 3.0 0.00 0.00 0.00 79 1013.3
20260506211704 64 131 0.0 3.0 0.00 0.00 0.00 79 1013.2
20260506211604 64 131 0.0 3.0 0.00 0.00 0.00 79 1013.2
20260506211504 64 131 0.0 3.0 0.00 0.00 0.00 80 1013.2
20260506211404 64 131 0.0 3.0 0.00 0.00 0.00 80 1013.3
20260506211304 64 131 0.0 3.0 0.00 0.00 0.00 80 1013.3
20260506211204 64 131 0.0 3.0 0.00 0.00 0.00 80 1013.4
20260506211104 64 131 0.0 3.0 0.00 0.00 0.00 80 1013.4
20260506211004 64 0 0.0 0.0 0.00 0.00 0.00 81 1013.3
20260506210904 64 0 0.0 0.0 0.00 0.00 0.00 81 1013.5
20260506210804 64 0 0.0 0.0 0.00 0.00 0.00 81 1013.4
20260506210704 64 112 0.0 1.0 0.00 0.00 0.00 81 1013.4
20260506210604 64 112 0.0 1.0 0.00 0.00 0.00 81 1013.5
20260506210504 64 102 0.0 1.0 0.00 0.00 0.00 81 1013.5
20260506210404 64 96 0.0 1.0 0.00 0.00 0.00 81 1013.4
20260506210304 64 96 0.0 1.0 0.00 0.00 0.00 81 1013.4
20260506210204 64 96 0.0 1.0 0.00 0.00 0.00 81 1013.5
20260506210104 64 96 0.0 1.0 0.00 0.00 0.00 81 1013.6
20260506210004 64 92 0.0 5.0 0.00 0.00 0.00 81 1013.7
20260506205904 64 92 0.0 5.0 0.00 0.00 0.00 81 1013.6
20260506205804 64 92 0.0 5.0 0.00 0.00 0.00 81 1013.6
20260506205704 64 88 0.0 5.0 0.00 0.00 0.00 81 1013.7
20260506205604 64 88 0.0 5.0 0.00 0.00 0.00 82 1013.6
20260506205503 64 88 0.0 5.0 0.00 0.00 0.00 82 1013.6
20260506205404 64 87 0.0 5.0 0.00 0.00 0.00 82 1013.7
20260506205306 64 87 0.0 5.0 0.00 0.00 0.00 82 1013.8
20260506205204 64 87 0.0 5.0 0.00 0.00 0.00 82 1013.7
20260506205104 64 75 0.0 5.0 0.00 0.00 0.00 82 1013.7
20260506205003 64 315 0.0 1.0 0.00 0.00 0.00 82 1013.7
20260506204903 64 315 0.0 1.0 0.00 0.00 0.00 82 1013.8
20260506204803 64 315 0.0 1.0 0.00 0.00 0.00 82 1013.9
20260506204703 64 315 0.0 1.0 0.00 0.00 0.00 82 1013.8
20260506204603 64 315 0.0 1.0 0.00 0.00 0.00 82 1013.8
20260506204503 64 315 0.0 1.0 0.00 0.00 0.00 82 1013.8
20260506204403 64 22 0.0 1.0 0.00 0.00 0.00 82 1013.9
20260506204303 64 22 0.0 1.0 0.00 0.00 0.00 82 1013.9
20260506204203 64 325 0.0 2.0 0.00 0.00 0.00 82 1014.0
20260506204103 64 314 0.0 2.0 0.00 0.00 0.00 82 1013.9
20260506204003 64 314 0.0 2.0 0.00 0.00 0.00 82 1013.9
20260506203903 64 314 0.0 2.0 0.00 0.00 0.00 82 1013.9
20260506203803 64 314 0.0 2.0 0.00 0.00 0.00 82 1014.0
20260506203703 64 307 0.0 2.0 0.00 0.00 0.00 82 1014.1
20260506203603 64 301 0.0 2.0 0.00 0.00 0.00 82 1014.1
20260506203503 64 296 0.0 2.0 0.00 0.00 0.00 82 1014.3
20260506203403 64 289 0.0 2.0 0.00 0.00 0.00 82 1014.3
20260506203303 64 289 0.0 2.0 0.00 0.00 0.00 82 1014.3
20260506203203 64 288 0.0 1.0 0.00 0.00 0.00 82 1014.4
20260506203103 64 287 0.0 1.0 0.00 0.00 0.00 82 1014.4
20260506203003 64 287 0.0 1.0 0.00 0.00 0.00 82 1014.5
20260506202903 64 287 0.0 1.0 0.00 0.00 0.00 82 1014.5
20260506202803 64 287 0.0 1.0 0.00 0.00 0.00 82 1014.4
20260506202703 64 285 0.0 1.0 0.00 0.00 0.00 82 1014.5
20260506202603 64 90 0.0 1.0 0.00 0.00 0.00 82 1014.5
20260506202503 64 90 0.0 1.0 0.00 0.00 0.00 82 1014.5
20260506202404 64 90 0.0 1.0 0.00 0.00 0.00 82 1014.5
20260506202306 64 90 0.0 1.0 0.00 0.00 0.00 82 1014.6
20260506202203 64 90 0.0 1.0 0.00 0.00 0.00 82 1014.6
20260506202103 64 90 0.0 1.0 0.00 0.00 0.00 82 1014.7
20260506202003 64 90 0.0 1.0 0.00 0.00 0.00 82 1014.6
20260506201903 64 90 0.0 1.0 0.00 0.00 0.00 82 1014.7
20260506201803 64 90 0.0 1.0 0.00 0.00 0.00 82 1014.7
20260506201703 64 90 0.0 1.0 0.00 0.00 0.00 82 1014.7
20260506201603 64 292 0.0 2.0 0.00 0.00 0.00 82 1014.7
20260506201503 64 292 0.0 2.0 0.00 0.00 0.00 82 1014.7
20260506201403 64 281 0.0 2.0 0.00 0.00 0.00 82 1014.7
20260506201303 64 281 0.0 2.0 0.00 0.00 0.00 82 1014.8
20260506201203 64 314 0.0 2.0 0.00 0.00 0.00 82 1014.8
20260506201103 64 314 0.0 2.0 0.00 0.00 0.00 82 1014.8
20260506201003 64 314 0.0 2.0 0.00 0.00 0.00 82 1014.8
20260506200903 64 314 0.0 2.0 0.00 0.00 0.00 82 1014.9
20260506200803 64 314 0.0 2.0 0.00 0.00 0.00 82 1014.9
20260506200703 64 314 0.0 2.0 0.00 0.00 0.00 82 1015.0
20260506200603 64 102 0.0 1.0 0.00 0.00 0.00 82 1015.0
20260506200503 64 89 0.0 1.0 0.00 0.00 0.00 82 1015.0
20260506200403 64 36 0.0 1.0 0.00 0.00 0.00 81 1015.1
20260506200303 64 36 0.0 1.0 0.00 0.00 0.00 81 1015.0
20260506200203 64 292 0.0 1.0 0.00 0.00 0.00 81 1015.1
20260506200003 64 264 0.0 1.0 0.00 0.00 0.00 81 1015.0
20260506195903 64 124 0.0 2.0 0.00 0.00 0.00 81 1015.1
20260506195803 64 124 0.0 2.0 0.00 0.00 0.00 81 1015.0
20260506195703 64 124 0.0 2.0 0.00 0.00 0.00 81 1015.1
20260506195603 64 118 0.0 2.0 0.00 0.00 0.00 81 1015.1
20260506195503 64 114 0.0 3.0 0.00 0.00 0.00 81 1015.1
20260506195403 64 117 0.0 3.0 0.00 0.00 0.00 81 1015.2
20260506195305 64 116 0.0 3.0 0.00 0.00 0.00 81 1015.1
20260506195203 64 115 0.0 3.0 0.00 0.00 0.00 81 1015.1
20260506195103 64 118 0.0 3.0 0.00 0.00 0.00 81 1015.0
20260506195003 64 117 0.0 3.0 0.00 0.00 0.00 81 1015.1
20260506194903 64 114 0.0 3.0 0.00 0.00 0.00 81 1015.0
20260506194803 64 114 0.0 3.0 0.00 0.00 0.00 81 1015.1
20260506194703 64 114 0.0 3.0 0.00 0.00 0.00 81 1015.0
20260506194603 64 114 0.0 3.0 0.00 0.00 0.00 81 1014.9
20260506194503 64 117 0.0 3.0 0.00 0.00 0.00 81 1014.9
20260506194403 64 114 0.0 3.0 0.00 0.00 0.00 81 1014.9
20260506194303 64 114 0.0 3.0 0.00 0.00 0.00 81 1014.9
20260506194203 64 116 0.0 2.0 0.00 0.00 0.00 81 1014.9
20260506194103 64 85 0.0 1.0 0.00 0.00 0.00 81 1014.9
20260506194003 64 82 0.0 1.0 0.00 0.00 0.00 81 1014.9
20260506193903 64 76 0.0 1.0 0.00 0.00 0.00 81 1014.9
20260506193803 64 76 0.0 1.0 0.00 0.00 0.00 81 1014.9
20260506193703 64 76 0.0 1.0 0.00 0.00 0.00 81 1014.9
20260506193603 64 88 0.0 1.0 0.00 0.00 0.00 81 1014.9
20260506193503 65 89 0.0 1.0 0.00 0.00 0.00 81 1015.0
20260506193403 65 89 0.0 1.0 0.00 0.00 0.00 80 1014.9
20260506193303 65 89 0.0 1.0 0.00 0.00 0.00 81 1015.0
20260506193203 65 98 0.0 1.0 0.00 0.00 0.00 80 1015.0
20260506193103 65 98 0.0 1.0 0.00 0.00 0.00 80 1015.0
20260506193003 65 98 0.0 1.0 0.00 0.00 0.00 80 1015.0
20260506192903 65 118 0.0 1.0 0.00 0.00 0.00 80 1014.9
20260506192803 65 118 0.0 1.0 0.00 0.00 0.00 80 1015.0
20260506192703 65 283 0.0 2.0 0.00 0.00 0.00 80 1015.0
20260506192603 65 285 0.0 2.0 0.00 0.00 0.00 80 1015.0
20260506192503 65 288 0.0 2.0 0.00 0.00 0.00 80 1014.9
20260506192404 65 283 0.0 2.0 0.00 0.00 0.00 80 1014.9
20260506192305 65 283 0.0 2.0 0.00 0.00 0.00 80 1015.0
20260506192204 65 111 0.0 3.0 0.00 0.00 0.00 80 1014.9
20260506192104 65 112 0.0 3.0 0.00 0.00 0.00 80 1014.9
20260506192004 65 112 0.0 3.0 0.00 0.00 0.00 80 1014.9
20260506191904 65 109 0.0 3.0 0.00 0.00 0.00 80 1014.9
20260506191804 65 107 0.0 3.0 0.00 0.00 0.00 80 1014.9
20260506191704 65 113 0.0 3.0 0.00 0.00 0.00 80 1015.0
20260506191604 65 113 0.0 3.0 0.00 0.00 0.00 80 1015.0
20260506191504 65 113 0.0 3.0 0.00 0.00 0.00 80 1014.9
20260506191404 65 113 0.0 3.0 0.00 0.00 0.00 80 1014.9
20260506191304 65 113 0.0 3.0 0.00 0.00 0.00 80 1014.9
20260506191204 65 115 0.0 2.0 0.00 0.00 0.00 80 1015.0
20260506191104 65 286 0.0 2.0 0.00 0.00 0.00 80 1015.1
20260506191004 65 286 0.0 2.0 0.00 0.00 0.00 79 1015.0
20260506190904 65 310 0.0 2.0 0.00 0.00 0.00 79 1015.0
20260506190804 65 301 0.0 2.0 0.00 0.00 0.00 79 1015.1
20260506190704 65 332 0.0 2.0 0.00 0.00 0.00 79 1015.1
20260506190604 65 332 0.0 2.0 0.00 0.00 0.00 79 1015.0
20260506190504 65 332 0.0 2.0 0.00 0.00 0.00 79 1015.1
20260506190404 65 332 0.0 2.0 0.00 0.00 0.00 79 1015.1
20260506190304 65 332 0.0 2.0 0.00 0.00 0.00 79 1015.0
20260506190204 65 360 0.0 2.0 0.00 0.00 0.00 79 1015.1
20260506190104 65 360 0.0 2.0 0.00 0.00 0.00 79 1015.1
20260506190004 65 360 0.0 2.0 0.00 0.00 0.00 79 1015.1
20260506185904 65 112 0.0 2.0 0.00 0.00 0.00 79 1015.1
20260506185804 65 112 0.0 2.0 0.00 0.00 0.00 79 1015.0
20260506185704 65 112 0.0 2.0 0.00 0.00 0.00 79 1014.9
20260506185604 65 112 0.0 2.0 0.00 0.00 0.00 79 1015.0
20260506185504 65 110 0.0 3.0 0.00 0.00 0.00 79 1015.0
20260506185404 65 112 0.0 3.0 0.00 0.00 0.00 79 1014.9
20260506185306 65 112 0.0 3.0 0.00 0.00 0.00 79 1014.9
20260506185204 65 112 0.0 3.0 0.00 0.00 0.00 79 1014.9
20260506185104 65 112 0.0 3.0 0.00 0.00 0.00 79 1014.8
20260506185004 65 111 0.0 4.0 0.00 0.00 0.00 79 1014.8
20260506184904 65 111 0.0 4.0 0.00 0.00 0.00 79 1014.7
20260506184804 65 111 0.0 4.0 0.00 0.00 0.00 79 1014.8
20260506184704 65 109 0.0 4.0 0.00 0.00 0.00 79 1014.8
20260506184604 65 109 0.0 4.0 0.00 0.00 0.00 79 1014.8
20260506184504 65 109 0.0 4.0 0.00 0.00 0.00 79 1014.7
20260506184404 65 105 0.0 4.0 0.00 0.00 0.00 79 1014.7
20260506184304 65 102 0.0 4.0 0.00 0.00 0.00 79 1014.6
20260506184203 65 102 0.0 4.0 0.00 0.00 0.00 79 1014.5
20260506184104 65 103 0.0 4.0 0.00 0.00 0.00 78 1014.6
20260506184004 65 88 0.0 2.0 0.00 0.00 0.00 78 1014.6
20260506183904 65 90 0.0 2.0 0.00 0.00 0.00 78 1014.6
20260506183803 65 90 0.0 2.0 0.00 0.00 0.00 78 1014.6
20260506183704 65 100 0.0 2.0 0.00 0.00 0.00 78 1014.5
20260506183604 65 104 0.0 2.0 0.00 0.00 0.00 78 1014.6
20260506183504 65 104 0.0 2.0 0.00 0.00 0.00 78 1014.5
20260506183404 65 110 0.0 2.0 0.00 0.00 0.00 78 1014.6
20260506183304 65 107 0.0 2.0 0.00 0.00 0.00 78 1014.5
20260506183203 65 104 0.0 2.0 0.00 0.00 0.00 78 1014.5
20260506183103 65 108 0.0 2.0 0.00 0.00 0.00 78 1014.5
20260506183004 65 103 0.0 2.0 0.00 0.00 0.00 77 1014.5
20260506182903 65 102 0.0 2.0 0.00 0.00 0.00 77 1014.7
20260506182803 65 102 0.0 2.0 0.00 0.00 0.00 77 1014.5
20260506182704 65 99 0.0 2.0 0.00 0.00 0.00 77 1014.6
20260506182603 65 92 0.0 2.0 0.00 0.00 0.00 77 1014.6
20260506182503 65 92 0.0 2.0 0.00 0.00 0.00 77 1014.7